Time,TemperatureF,DewpointF,PressureIn,WindDirection,WindDirectionDegrees,WindSpeedMPH,WindSpeedGustMPH,Humidity,HourlyPrecipIn,Conditions,Clouds,dailyrainin,SolarRadiationWatts/m^2,SoftwareType,DateUTC
2013-06-07 00:01:00,82.8,46.3,29.68,WNW,285,3.0,-999.0,28,0.00,,,0.00,0,WeatherHawk,2013-06-07 07:01:00,
2013-06-07 00:02:00,82.8,46.3,29.68,West,269,3.0,4.0,28,0.00,,,0.00,2,WeatherHawk,2013-06-07 07:02:00,
2013-06-07 00:03:00,82.8,46.3,29.68,WSW,254,2.0,4.0,28,0.00,,,0.00,0,WeatherHawk,2013-06-07 07:03:00,
2013-06-07 00:06:00,82.8,46.3,29.68,West,265,4.0,4.0,28,0.00,,,0.00,0,WeatherHawk,2013-06-07 07:06:00,
2013-06-07 00:08:00,82.8,46.3,29.68,WSW,255,3.0,4.0,28,0.00,,,0.00,0,WeatherHawk,2013-06-07 07:08:00,
2013-06-07 00:13:00,82.8,46.3,29.68,South,178,3.0,4.0,28,0.00,,,0.00,0,WeatherHawk,2013-06-07 07:13:00,
2013-06-07 00:15:00,82.8,46.3,29.68,South,169,4.0,4.0,28,0.00,,,0.00,0,WeatherHawk,2013-06-07 07:15:00,
2013-06-07 00:16:00,82.9,45.5,29.68,SSE,157,4.0,4.0,27,0.00,,,0.00,0,WeatherHawk,2013-06-07 07:16:00,
2013-06-07 00:19:00,82.4,45.0,29.68,SSE,152,4.0,4.0,27,0.00,,,0.00,0,WeatherHawk,2013-06-07 07:19:00,
2013-06-07 00:20:00,82.2,45.8,29.68,SSE,162,4.0,4.0,28,0.00,,,0.00,0,WeatherHawk,2013-06-07 07:20:00,
2013-06-07 00:21:00,82.0,45.7,29.68,South,176,4.0,4.0,28,0.00,,,0.00,0,WeatherHawk,2013-06-07 07:21:00,
2013-06-07 00:23:00,82.2,45.8,29.68,South,186,4.0,4.0,28,0.00,,,0.00,2,WeatherHawk,2013-06-07 07:23:00,
2013-06-07 00:24:00,82.4,45.0,29.68,SSW,199,3.0,4.0,27,0.00,,,0.00,1,WeatherHawk,2013-06-07 07:24:00,
2013-06-07 00:29:00,82.6,46.1,29.68,SSE,147,4.0,5.0,28,0.00,,,0.00,0,WeatherHawk,2013-06-07 07:29:00,
2013-06-07 00:30:00,82.2,45.8,29.68,SE,140,4.0,5.0,28,0.00,,,0.00,0,WeatherHawk,2013-06-07 07:30:00,
2013-06-07 00:31:00,81.9,46.5,29.68,SE,137,4.0,5.0,29,0.00,,,0.00,0,WeatherHawk,2013-06-07 07:31:00,
2013-06-07 00:32:00,81.9,46.5,29.68,SE,130,4.0,5.0,29,0.00,,,0.00,0,WeatherHawk,2013-06-07 07:32:00,
2013-06-07 00:36:00,81.7,46.3,29.68,ESE,114,3.0,5.0,29,0.00,,,0.00,0,WeatherHawk,2013-06-07 07:36:00,
2013-06-07 00:38:00,81.5,46.2,29.68,NE,43,2.0,6.0,29,0.00,,,0.00,0,WeatherHawk,2013-06-07 07:38:00,
2013-06-07 00:39:00,81.3,46.0,29.68,NE,56,2.0,6.0,29,0.00,,,0.00,0,WeatherHawk,2013-06-07 07:39:00,
2013-06-07 00:42:00,81.5,46.2,29.68,ESE,102,5.0,6.0,29,0.00,,,0.00,0,WeatherHawk,2013-06-07 07:42:00,
2013-06-07 00:43:00,81.5,46.2,29.68,ESE,107,5.0,6.0,29,0.00,,,0.00,0,WeatherHawk,2013-06-07 07:43:00,
2013-06-07 00:46:00,81.5,47.9,29.68,ESE,103,4.0,6.0,31,0.00,,,0.00,0,WeatherHawk,2013-06-07 07:46:00,
2013-06-07 00:47:00,81.5,47.9,29.68,ESE,103,4.0,-999.0,31,0.00,,,0.00,0,WeatherHawk,2013-06-07 07:47:00,
2013-06-07 00:48:00,81.0,47.5,29.68,East,98,4.0,5.0,31,0.00,,,0.00,0,WeatherHawk,2013-06-07 07:48:00,
2013-06-07 00:50:00,80.6,48.0,29.68,East,97,4.0,5.0,32,0.00,,,0.00,0,WeatherHawk,2013-06-07 07:50:00,
2013-06-07 00:51:00,80.4,48.7,29.68,East,99,4.0,5.0,33,0.00,,,0.00,0,WeatherHawk,2013-06-07 07:51:00,
2013-06-07 00:56:00,79.7,48.0,29.68,East,101,3.0,5.0,33,0.00,,,0.00,0,WeatherHawk,2013-06-07 07:56:00,
2013-06-07 00:57:00,79.7,48.0,29.68,East,101,3.0,-999.0,33,0.00,,,0.00,0,WeatherHawk,2013-06-07 07:57:00,
2013-06-07 01:00:00,79.9,48.2,29.68,ESE,111,4.0,5.0,33,0.00,,,0.00,0,WeatherHawk,2013-06-07 08:00:00,
2013-06-07 01:01:00,80.1,48.3,29.68,ESE,107,4.0,5.0,33,0.00,,,0.00,0,WeatherHawk,2013-06-07 08:01:00,
2013-06-07 01:03:00,80.2,48.5,29.68,ESE,107,5.0,5.0,33,0.00,,,0.00,0,WeatherHawk,2013-06-07 08:03:00,
2013-06-07 01:06:00,80.6,48.0,29.68,ESE,110,4.0,5.0,32,0.00,,,0.00,0,WeatherHawk,2013-06-07 08:06:00,
2013-06-07 01:07:00,80.4,47.8,29.68,ESE,110,4.0,6.0,32,0.00,,,0.00,0,WeatherHawk,2013-06-07 08:07:00,
2013-06-07 01:09:00,80.4,47.8,29.68,ESE,117,3.0,6.0,32,0.00,,,0.00,0,WeatherHawk,2013-06-07 08:09:00,
2013-06-07 01:10:00,80.4,47.8,29.68,ESE,117,3.0,6.0,32,0.00,,,0.00,0,WeatherHawk,2013-06-07 08:10:00,
2013-06-07 01:11:00,80.4,47.0,29.68,ESE,114,3.0,-999.0,31,0.00,,,0.00,0,WeatherHawk,2013-06-07 08:11:00,
2013-06-07 01:15:00,81.1,47.6,29.68,ESE,112,3.0,6.0,31,0.00,,,0.00,0,WeatherHawk,2013-06-07 08:15:00,
2013-06-07 01:18:00,81.0,47.5,29.68,East,98,1.0,4.0,31,0.00,,,0.00,0,WeatherHawk,2013-06-07 08:18:00,
2013-06-07 01:20:00,80.8,47.3,29.68,East,84,1.0,4.0,31,0.00,,,0.00,0,WeatherHawk,2013-06-07 08:20:00,
2013-06-07 01:21:00,80.6,47.1,29.68,East,91,1.0,4.0,31,0.00,,,0.00,0,WeatherHawk,2013-06-07 08:21:00,
2013-06-07 01:22:00,80.6,47.1,29.68,East,97,1.0,4.0,31,0.00,,,0.00,0,WeatherHawk,2013-06-07 08:22:00,
2013-06-07 01:24:00,80.4,47.0,29.68,ESE,106,1.0,4.0,31,0.00,,,0.00,0,WeatherHawk,2013-06-07 08:24:00,
2013-06-07 01:26:00,80.2,47.7,29.68,SSE,152,1.0,-999.0,32,0.00,,,0.00,0,WeatherHawk,2013-06-07 08:26:00,
2013-06-07 01:30:00,80.4,47.0,29.68,SSE,152,3.0,3.0,31,0.00,,,0.00,0,WeatherHawk,2013-06-07 08:30:00,
2013-06-07 01:31:00,80.8,47.3,29.68,SSE,154,3.0,3.0,31,0.00,,,0.00,1,WeatherHawk,2013-06-07 08:31:00,
2013-06-07 01:35:00,81.5,46.2,29.67,SE,142,3.0,3.0,29,0.00,,,0.00,0,WeatherHawk,2013-06-07 08:35:00,
2013-06-07 01:36:00,81.7,45.4,29.67,SSE,147,2.0,2.0,28,0.00,,,0.00,0,WeatherHawk,2013-06-07 08:36:00,
2013-06-07 01:41:00,82.6,44.2,29.67,SSE,154,4.0,4.0,26,0.00,,,0.00,0,WeatherHawk,2013-06-07 08:41:00,
2013-06-07 01:43:00,82.9,43.5,29.67,SSE,164,3.0,4.0,25,0.00,,,0.00,0,WeatherHawk,2013-06-07 08:43:00,
2013-06-07 01:44:00,82.9,42.4,29.67,SSE,152,3.0,4.0,24,0.00,,,0.00,0,WeatherHawk,2013-06-07 08:44:00,
2013-06-07 01:46:00,83.1,41.5,29.67,SSE,155,4.0,-999.0,23,0.00,,,0.00,0,WeatherHawk,2013-06-07 08:46:00,
2013-06-07 01:50:00,83.1,43.6,29.67,SSE,149,5.0,5.0,25,0.00,,,0.00,0,WeatherHawk,2013-06-07 08:50:00,
2013-06-07 01:51:00,82.9,42.4,29.67,SSE,153,6.0,6.0,24,0.00,,,0.00,0,WeatherHawk,2013-06-07 08:51:00,
2013-06-07 01:54:00,84.9,35.2,29.67,SSE,162,7.0,7.0,17,0.00,,,0.00,1,WeatherHawk,2013-06-07 08:54:00,
2013-06-07 01:56:00,86.0,34.6,29.66,SSE,166,7.0,-999.0,16,0.00,,,0.00,0,WeatherHawk,2013-06-07 08:56:00,
2013-06-07 01:57:00,86.4,34.8,29.66,SSE,163,6.0,7.0,16,0.00,,,0.00,0,WeatherHawk,2013-06-07 08:57:00,
2013-06-07 02:02:00,85.5,41.0,29.66,SSE,166,5.0,7.0,21,0.00,,,0.00,0,WeatherHawk,2013-06-07 09:02:00,
2013-06-07 02:04:00,84.4,40.2,29.66,South,185,3.0,7.0,21,0.00,,,0.00,0,WeatherHawk,2013-06-07 09:04:00,
2013-06-07 02:06:00,84.0,38.6,29.66,South,177,4.0,7.0,20,0.00,,,0.00,0,WeatherHawk,2013-06-07 09:06:00,
2013-06-07 02:09:00,84.2,38.8,29.66,South,170,4.0,7.0,20,0.00,,,0.00,0,WeatherHawk,2013-06-07 09:09:00,
2013-06-07 02:10:00,84.0,39.9,29.66,South,171,4.0,7.0,21,0.00,,,0.00,0,WeatherHawk,2013-06-07 09:10:00,
2013-06-07 02:11:00,83.8,38.5,29.66,SSE,162,4.0,7.0,20,0.00,,,0.00,0,WeatherHawk,2013-06-07 09:11:00,
2013-06-07 02:15:00,83.5,40.6,29.66,SSE,163,5.0,7.0,22,0.00,,,0.00,0,WeatherHawk,2013-06-07 09:15:00,
2013-06-07 02:16:00,83.3,40.5,29.66,SSE,163,5.0,7.0,22,0.00,,,0.00,0,WeatherHawk,2013-06-07 09:16:00,
2013-06-07 02:17:00,82.8,40.0,29.66,SSE,165,5.0,5.0,22,0.00,,,0.00,0,WeatherHawk,2013-06-07 09:17:00,
2013-06-07 02:20:00,82.2,39.6,29.66,SSE,155,6.0,6.0,22,0.00,,,0.00,0,WeatherHawk,2013-06-07 09:20:00,
2013-06-07 02:21:00,82.2,38.4,29.66,SSE,154,5.0,5.0,21,0.00,,,0.00,0,WeatherHawk,2013-06-07 09:21:00,
2013-06-07 02:23:00,82.2,38.4,29.66,SSE,153,4.0,5.0,21,0.00,,,0.00,0,WeatherHawk,2013-06-07 09:23:00,
2013-06-07 02:24:00,82.2,38.4,29.66,SE,145,5.0,5.0,21,0.00,,,0.00,0,WeatherHawk,2013-06-07 09:24:00,
2013-06-07 02:26:00,82.8,38.8,29.66,SE,146,5.0,-999.0,21,0.00,,,0.00,0,WeatherHawk,2013-06-07 09:26:00,
2013-06-07 02:27:00,82.8,40.0,29.66,SE,141,4.0,6.0,22,0.00,,,0.00,0,WeatherHawk,2013-06-07 09:27:00,
2013-06-07 02:30:00,82.2,40.7,29.66,SE,132,3.0,6.0,23,0.00,,,0.00,0,WeatherHawk,2013-06-07 09:30:00,
2013-06-07 02:32:00,81.7,41.4,29.66,SE,139,3.0,6.0,24,0.00,,,0.00,0,WeatherHawk,2013-06-07 09:32:00,
2013-06-07 02:34:00,81.1,39.8,29.66,SE,142,4.0,6.0,23,0.00,,,0.00,0,WeatherHawk,2013-06-07 09:34:00,
2013-06-07 02:35:00,81.1,39.8,29.66,SE,139,4.0,6.0,23,0.00,,,0.00,0,WeatherHawk,2013-06-07 09:35:00,
2013-06-07 02:36:00,81.1,38.7,29.66,SE,137,4.0,6.0,22,0.00,,,0.00,0,WeatherHawk,2013-06-07 09:36:00,
2013-06-07 02:38:00,81.5,39.0,29.66,SE,141,4.0,5.0,22,0.00,,,0.00,0,WeatherHawk,2013-06-07 09:38:00,
2013-06-07 02:41:00,81.5,37.8,29.66,SSE,147,4.0,5.0,21,0.00,,,0.00,0,WeatherHawk,2013-06-07 09:41:00,
2013-06-07 02:42:00,81.3,37.6,29.66,SE,141,4.0,5.0,21,0.00,,,0.00,0,WeatherHawk,2013-06-07 09:42:00,
2013-06-07 02:45:00,81.5,36.5,29.66,SE,137,4.0,5.0,20,0.00,,,0.00,0,WeatherHawk,2013-06-07 09:45:00,
2013-06-07 02:46:00,81.5,36.5,29.66,SE,131,4.0,5.0,20,0.00,,,0.00,1,WeatherHawk,2013-06-07 09:46:00,
2013-06-07 02:48:00,81.7,36.7,29.66,ESE,123,3.0,5.0,20,0.00,,,0.00,0,WeatherHawk,2013-06-07 09:48:00,
2013-06-07 02:51:00,81.7,35.4,29.66,ESE,114,4.0,5.0,19,0.00,,,0.00,0,WeatherHawk,2013-06-07 09:51:00,
2013-06-07 02:52:00,81.7,35.4,29.66,East,100,3.0,5.0,19,0.00,,,0.00,0,WeatherHawk,2013-06-07 09:52:00,
2013-06-07 02:56:00,81.9,35.5,29.66,ESE,108,4.0,5.0,19,0.00,,,0.00,0,WeatherHawk,2013-06-07 09:56:00,
2013-06-07 02:57:00,81.9,35.5,29.66,ESE,107,4.0,5.0,19,0.00,,,0.00,0,WeatherHawk,2013-06-07 09:57:00,
2013-06-07 02:59:00,82.0,34.3,29.66,ESE,105,5.0,5.0,18,0.00,,,0.00,1,WeatherHawk,2013-06-07 09:59:00,
2013-06-07 03:00:00,82.2,35.8,29.66,ESE,110,3.0,5.0,19,0.00,,,0.00,0,WeatherHawk,2013-06-07 10:00:00,
2013-06-07 03:02:00,82.0,35.7,29.66,ESE,115,5.0,5.0,19,0.00,,,0.00,0,WeatherHawk,2013-06-07 10:02:00,
2013-06-07 03:04:00,82.0,35.7,29.66,ESE,115,4.0,5.0,19,0.00,,,0.00,0,WeatherHawk,2013-06-07 10:04:00,
2013-06-07 03:06:00,81.9,35.5,29.66,ESE,111,3.0,5.0,19,0.00,,,0.00,0,WeatherHawk,2013-06-07 10:06:00,
2013-06-07 03:07:00,81.7,35.4,29.66,ESE,115,3.0,5.0,19,0.00,,,0.00,0,WeatherHawk,2013-06-07 10:07:00,
2013-06-07 03:10:00,81.5,35.2,29.66,ESE,114,4.0,6.0,19,0.00,,,0.00,0,WeatherHawk,2013-06-07 10:10:00,
2013-06-07 03:12:00,81.5,35.2,29.66,ESE,111,4.0,6.0,19,0.00,,,0.00,0,WeatherHawk,2013-06-07 10:12:00,
2013-06-07 03:13:00,81.3,35.1,29.66,ESE,106,3.0,6.0,19,0.00,,,0.00,0,WeatherHawk,2013-06-07 10:13:00,
2013-06-07 03:17:00,81.0,34.8,29.66,NE,39,1.0,6.0,19,0.00,,,0.00,0,WeatherHawk,2013-06-07 10:17:00,
2013-06-07 03:19:00,80.8,37.2,29.66,North,353,4.0,4.0,21,0.00,,,0.00,0,WeatherHawk,2013-06-07 10:19:00,
2013-06-07 03:22:00,79.7,36.3,29.66,NE,47,3.0,4.0,21,0.00,,,0.00,1,WeatherHawk,2013-06-07 10:22:00,
2013-06-07 03:25:00,80.2,35.5,29.66,ESE,111,4.0,4.0,20,0.00,,,0.00,0,WeatherHawk,2013-06-07 10:25:00,
2013-06-07 03:26:00,80.4,35.7,29.66,ESE,120,5.0,5.0,20,0.00,,,0.00,0,WeatherHawk,2013-06-07 10:26:00,
2013-06-07 03:27:00,80.4,35.7,29.66,SE,131,4.0,-999.0,20,0.00,,,0.00,0,WeatherHawk,2013-06-07 10:27:00,
2013-06-07 03:30:00,81.1,35.0,29.65,SE,142,6.0,6.0,19,0.00,,,0.00,0,WeatherHawk,2013-06-07 10:30:00,
2013-06-07 03:31:00,81.3,35.1,29.65,SE,129,7.0,7.0,19,0.00,,,0.00,0,WeatherHawk,2013-06-07 10:31:00,
2013-06-07 03:32:00,81.5,35.2,29.65,SE,135,7.0,7.0,19,0.00,,,0.00,0,WeatherHawk,2013-06-07 10:32:00,
2013-06-07 03:33:00,81.7,35.4,29.65,SE,131,7.0,7.0,19,0.00,,,0.00,0,WeatherHawk,2013-06-07 10:33:00,
2013-06-07 03:37:00,81.1,36.2,29.65,SE,134,6.0,6.0,20,0.00,,,0.00,0,WeatherHawk,2013-06-07 10:37:00,
2013-06-07 03:41:00,80.6,35.8,29.65,SE,145,6.0,7.0,20,0.00,,,0.00,0,WeatherHawk,2013-06-07 10:41:00,
2013-06-07 03:43:00,80.6,35.8,29.65,SE,143,7.0,7.0,20,0.00,,,0.00,0,WeatherHawk,2013-06-07 10:43:00,
2013-06-07 03:45:00,80.6,35.8,29.65,SSE,154,5.0,7.0,20,0.00,,,0.00,0,WeatherHawk,2013-06-07 10:45:00,
2013-06-07 03:46:00,80.6,35.8,29.65,SSE,147,6.0,7.0,20,0.00,,,0.00,0,WeatherHawk,2013-06-07 10:46:00,
2013-06-07 03:48:00,80.4,35.7,29.65,SE,141,7.0,8.0,20,0.00,,,0.00,0,WeatherHawk,2013-06-07 10:48:00,
2013-06-07 03:51:00,80.4,35.7,29.65,SE,142,6.0,8.0,20,0.00,,,0.00,1,WeatherHawk,2013-06-07 10:51:00,
2013-06-07 03:52:00,80.2,35.5,29.65,SSE,150,4.0,8.0,20,0.00,,,0.00,0,WeatherHawk,2013-06-07 10:52:00,
2013-06-07 03:56:00,80.1,35.4,29.66,SSE,157,5.0,8.0,20,0.00,,,0.00,0,WeatherHawk,2013-06-07 10:56:00,
2013-06-07 03:57:00,80.1,35.4,29.65,SSE,148,6.0,8.0,20,0.00,,,0.00,0,WeatherHawk,2013-06-07 10:57:00,
2013-06-07 03:59:00,79.9,35.2,29.66,SE,140,5.0,7.0,20,0.00,,,0.00,0,WeatherHawk,2013-06-07 10:59:00,
2013-06-07 04:00:00,79.7,36.3,29.66,South,169,4.0,7.0,21,0.00,,,0.00,0,WeatherHawk,2013-06-07 11:00:00,
2013-06-07 04:04:00,79.7,36.3,29.66,SSE,154,4.0,7.0,21,0.00,,,0.00,0,WeatherHawk,2013-06-07 11:04:00,
2013-06-07 04:05:00,79.7,36.3,29.66,SSE,161,4.0,7.0,21,0.00,,,0.00,0,WeatherHawk,2013-06-07 11:05:00,
2013-06-07 04:07:00,79.5,36.1,29.66,South,171,3.0,7.0,21,0.00,,,0.00,0,WeatherHawk,2013-06-07 11:07:00,
2013-06-07 04:11:00,79.3,36.0,29.66,SSE,153,4.0,6.0,21,0.00,,,0.00,0,WeatherHawk,2013-06-07 11:11:00,
2013-06-07 04:12:00,79.5,36.1,29.66,SE,130,3.0,6.0,21,0.00,,,0.00,0,WeatherHawk,2013-06-07 11:12:00,
2013-06-07 04:14:00,79.5,36.1,29.66,SE,143,4.0,6.0,21,0.00,,,0.00,0,WeatherHawk,2013-06-07 11:14:00,
2013-06-07 04:17:00,79.3,36.0,29.66,SE,146,4.0,6.0,21,0.00,,,0.00,0,WeatherHawk,2013-06-07 11:17:00,
2013-06-07 04:19:00,79.5,34.9,29.66,SE,146,5.0,5.0,20,0.00,,,0.00,0,WeatherHawk,2013-06-07 11:19:00,
2013-06-07 04:20:00,79.7,33.8,29.66,SE,139,7.0,7.0,19,0.00,,,0.00,0,WeatherHawk,2013-06-07 11:20:00,
2013-06-07 04:21:00,79.7,35.1,29.66,SE,136,6.0,6.0,20,0.00,,,0.00,0,WeatherHawk,2013-06-07 11:21:00,
2013-06-07 04:22:00,80.1,35.4,29.66,SE,144,5.0,5.0,20,0.00,,,0.00,0,WeatherHawk,2013-06-07 11:22:00,
2013-06-07 04:24:00,80.2,34.2,29.66,SE,142,6.0,6.0,19,0.00,,,0.00,0,WeatherHawk,2013-06-07 11:24:00,
2013-06-07 04:26:00,80.4,34.4,29.66,SE,139,5.0,5.0,19,0.00,,,0.00,0,WeatherHawk,2013-06-07 11:26:00,
2013-06-07 04:27:00,80.4,34.4,29.66,SSE,147,7.0,7.0,19,0.00,,,0.00,0,WeatherHawk,2013-06-07 11:27:00,
2013-06-07 04:29:00,80.2,34.2,29.66,SE,142,6.0,7.0,19,0.00,,,0.00,0,WeatherHawk,2013-06-07 11:29:00,
2013-06-07 04:30:00,80.2,34.2,29.66,SE,140,7.0,7.0,19,0.00,,,0.00,0,WeatherHawk,2013-06-07 11:30:00,
2013-06-07 04:32:00,79.9,33.9,29.66,SE,138,6.0,7.0,19,0.00,,,0.00,0,WeatherHawk,2013-06-07 11:32:00,
2013-06-07 04:34:00,79.9,33.9,29.66,SE,144,6.0,7.0,19,0.00,,,0.00,0,WeatherHawk,2013-06-07 11:34:00,
2013-06-07 04:37:00,79.9,33.9,29.66,SE,140,6.0,7.0,19,0.00,,,0.00,0,WeatherHawk,2013-06-07 11:37:00,
2013-06-07 04:39:00,80.1,34.1,29.66,SE,140,6.0,7.0,19,0.00,,,0.00,0,WeatherHawk,2013-06-07 11:39:00,
2013-06-07 04:40:00,79.9,33.9,29.66,SE,144,6.0,7.0,19,0.00,,,0.00,0,WeatherHawk,2013-06-07 11:40:00,
2013-06-07 04:42:00,79.7,33.8,29.66,SE,143,6.0,7.0,19,0.00,,,0.00,0,WeatherHawk,2013-06-07 11:42:00,
2013-06-07 04:44:00,79.5,33.6,29.66,SE,139,6.0,7.0,19,0.00,,,0.00,0,WeatherHawk,2013-06-07 11:44:00,
2013-06-07 04:45:00,79.5,33.6,29.66,SE,137,6.0,7.0,19,0.00,,,0.00,0,WeatherHawk,2013-06-07 11:45:00,
2013-06-07 04:46:00,79.5,33.6,29.66,SE,134,6.0,7.0,19,0.00,,,0.00,0,WeatherHawk,2013-06-07 11:46:00,
2013-06-07 04:48:00,79.7,33.8,29.66,SE,135,6.0,0.0,19,0.00,,,0.00,1,WeatherHawk,2013-06-07 11:48:00,
2013-06-07 04:51:00,79.9,33.9,29.66,SE,144,6.0,7.0,19,0.00,,,0.00,0,WeatherHawk,2013-06-07 11:51:00,
2013-06-07 04:52:00,79.7,33.8,29.66,SE,146,6.0,7.0,19,0.00,,,0.00,0,WeatherHawk,2013-06-07 11:52:00,
2013-06-07 04:53:00,79.7,33.8,29.66,SE,145,6.0,7.0,19,0.00,,,0.00,0,WeatherHawk,2013-06-07 11:53:00,
2013-06-07 04:56:00,79.5,33.6,29.66,SE,138,6.0,7.0,19,0.00,,,0.00,0,WeatherHawk,2013-06-07 11:56:00,
2013-06-07 04:57:00,79.5,33.6,29.66,SE,137,6.0,-999.0,19,0.00,,,0.00,0,WeatherHawk,2013-06-07 11:57:00,
2013-06-07 04:59:00,79.5,33.6,29.66,SE,133,6.0,7.0,19,0.00,,,0.00,0,WeatherHawk,2013-06-07 11:59:00,
2013-06-07 05:02:00,79.5,33.6,29.66,SE,130,8.0,8.0,19,0.00,,,0.00,0,WeatherHawk,2013-06-07 12:02:00,
2013-06-07 05:03:00,79.5,32.3,29.66,SE,129,7.0,7.0,18,0.00,,,0.00,0,WeatherHawk,2013-06-07 12:03:00,
2013-06-07 05:04:00,79.7,32.4,29.66,SE,129,7.0,7.0,18,0.00,,,0.00,0,WeatherHawk,2013-06-07 12:04:00,
2013-06-07 05:07:00,79.9,32.6,29.66,SE,136,7.0,-999.0,18,0.00,,,0.00,0,WeatherHawk,2013-06-07 12:07:00,
2013-06-07 05:09:00,79.9,32.6,29.66,SE,132,6.0,9.0,18,0.00,,,0.00,0,WeatherHawk,2013-06-07 12:09:00,
2013-06-07 05:10:00,79.9,32.6,29.66,SE,134,6.0,9.0,18,0.00,,,0.00,1,WeatherHawk,2013-06-07 12:10:00,
2013-06-07 05:11:00,79.9,32.6,29.66,SE,137,5.0,9.0,18,0.00,,,0.00,0,WeatherHawk,2013-06-07 12:11:00,
2013-06-07 05:13:00,79.9,32.6,29.66,SE,131,6.0,9.0,18,0.00,,,0.00,0,WeatherHawk,2013-06-07 12:13:00,
2013-06-07 05:15:00,79.9,31.2,29.67,SE,141,6.0,9.0,17,0.00,,,0.00,0,WeatherHawk,2013-06-07 12:15:00,
2013-06-07 05:17:00,79.9,31.2,29.67,SE,141,6.0,9.0,17,0.00,,,0.00,0,WeatherHawk,2013-06-07 12:17:00,
2013-06-07 05:19:00,79.9,31.2,29.67,SE,140,5.0,7.0,17,0.00,,,0.00,0,WeatherHawk,2013-06-07 12:19:00,
2013-06-07 05:22:00,79.7,31.0,29.67,SE,142,5.0,-999.0,17,0.00,,,0.00,2,WeatherHawk,2013-06-07 12:22:00,
2013-06-07 05:26:00,79.7,31.0,29.67,SE,134,6.0,7.0,17,0.00,,,0.00,1,WeatherHawk,2013-06-07 12:26:00,
2013-06-07 05:27:00,79.7,31.0,29.67,SE,133,6.0,7.0,17,0.00,,,0.00,3,WeatherHawk,2013-06-07 12:27:00,
2013-06-07 05:30:00,79.9,31.2,29.67,SE,134,7.0,7.0,17,0.00,,,0.00,4,WeatherHawk,2013-06-07 12:30:00,
2013-06-07 05:32:00,80.1,31.3,29.67,SE,140,7.0,7.0,17,0.00,,,0.00,5,WeatherHawk,2013-06-07 12:32:00,
2013-06-07 05:34:00,80.1,31.3,29.67,SE,138,6.0,7.0,17,0.00,,,0.00,6,WeatherHawk,2013-06-07 12:34:00,
2013-06-07 05:35:00,80.1,31.3,29.67,SE,133,6.0,7.0,17,0.00,,,0.00,7,WeatherHawk,2013-06-07 12:35:00,
2013-06-07 05:37:00,80.1,31.3,29.67,SE,133,7.0,7.0,17,0.00,,,0.00,9,WeatherHawk,2013-06-07 12:37:00,
2013-06-07 05:41:00,79.9,31.2,29.67,SE,139,6.0,8.0,17,0.00,,,0.00,11,WeatherHawk,2013-06-07 12:41:00,
2013-06-07 05:42:00,79.9,31.2,29.67,SE,137,6.0,8.0,17,0.00,,,0.00,14,WeatherHawk,2013-06-07 12:42:00,
2013-06-07 05:47:00,79.5,30.9,29.67,SE,135,7.0,8.0,17,0.00,,,0.00,22,WeatherHawk,2013-06-07 12:47:00,
2013-06-07 05:50:00,79.5,30.9,29.67,SE,136,6.0,7.0,17,0.00,,,0.00,32,WeatherHawk,2013-06-07 12:50:00,
2013-06-07 05:54:00,79.5,32.3,29.67,SE,143,4.0,7.0,18,0.00,,,0.00,46,WeatherHawk,2013-06-07 12:54:00,
2013-06-07 05:55:00,79.5,32.3,29.68,SSE,149,4.0,7.0,18,0.00,,,0.00,48,WeatherHawk,2013-06-07 12:55:00,
2013-06-07 05:57:00,79.3,32.1,29.68,SSE,164,4.0,7.0,18,0.00,,,0.00,51,WeatherHawk,2013-06-07 12:57:00,
2013-06-07 06:01:00,78.8,34.3,29.68,NW,307,2.0,7.0,20,0.00,,,0.00,64,WeatherHawk,2013-06-07 13:01:00,
2013-06-07 06:02:00,78.4,34.0,29.68,West,276,2.0,-999.0,20,0.00,,,0.00,57,WeatherHawk,2013-06-07 13:02:00,
2013-06-07 06:03:00,78.3,32.6,29.68,SW,220,2.0,7.0,19,0.00,,,0.00,68,WeatherHawk,2013-06-07 13:03:00,
2013-06-07 06:05:00,78.3,32.6,29.68,SSE,154,2.0,7.0,19,0.00,,,0.00,75,WeatherHawk,2013-06-07 13:05:00,
2013-06-07 06:06:00,78.4,32.7,29.68,SSE,158,3.0,7.0,19,0.00,,,0.00,76,WeatherHawk,2013-06-07 13:06:00,
2013-06-07 06:07:00,78.6,32.9,29.68,South,172,2.0,-999.0,19,0.00,,,0.00,79,WeatherHawk,2013-06-07 13:07:00,
2013-06-07 06:10:00,78.8,33.0,29.68,West,267,2.0,4.0,19,0.00,,,0.00,88,WeatherHawk,2013-06-07 13:10:00,
2013-06-07 06:12:00,78.6,34.2,29.68,WNW,290,2.0,4.0,20,0.00,,,0.00,95,WeatherHawk,2013-06-07 13:12:00,
2013-06-07 06:16:00,78.4,34.0,29.69,SSW,211,2.0,4.0,20,0.00,,,0.00,110,WeatherHawk,2013-06-07 13:16:00,
2013-06-07 06:17:00,78.4,34.0,29.69,SSW,211,2.0,4.0,20,0.00,,,0.00,110,WeatherHawk,2013-06-07 13:17:00,
2013-06-07 06:19:00,78.4,34.0,29.68,SSW,211,2.0,2.0,20,0.00,,,0.00,116,WeatherHawk,2013-06-07 13:19:00,
2013-06-07 06:22:00,78.4,34.0,29.69,SSW,203,3.0,3.0,20,0.00,,,0.00,126,WeatherHawk,2013-06-07 13:22:00,
2013-06-07 06:27:00,78.6,36.6,29.69,South,184,1.0,2.0,22,0.00,,,0.00,139,WeatherHawk,2013-06-07 13:27:00,
2013-06-07 06:28:00,78.6,32.9,29.69,SW,228,2.0,0.0,19,0.00,,,0.00,145,WeatherHawk,2013-06-07 13:28:00,
2013-06-07 06:31:00,78.6,34.2,29.69,SW,217,3.0,4.0,20,0.00,,,0.00,158,WeatherHawk,2013-06-07 13:31:00,
2013-06-07 06:32:00,78.6,34.2,29.69,SW,217,3.0,-999.0,20,0.00,,,0.00,158,WeatherHawk,2013-06-07 13:32:00,
2013-06-07 06:34:00,78.6,34.2,29.69,SW,227,3.0,4.0,20,0.00,,,0.00,169,WeatherHawk,2013-06-07 13:34:00,
2013-06-07 06:38:00,78.6,36.6,29.69,SW,233,2.0,4.0,22,0.00,,,0.00,180,WeatherHawk,2013-06-07 13:38:00,
2013-06-07 06:39:00,78.6,35.4,29.69,WSW,239,2.0,4.0,21,0.00,,,0.00,177,WeatherHawk,2013-06-07 13:39:00,
2013-06-07 06:42:00,78.6,39.8,29.69,West,261,3.0,-999.0,25,0.00,,,0.00,194,WeatherHawk,2013-06-07 13:42:00,
2013-06-07 06:44:00,78.3,37.4,29.69,SW,230,3.0,4.0,23,0.00,,,0.00,201,WeatherHawk,2013-06-07 13:44:00,
2013-06-07 06:47:00,78.1,37.3,29.69,SSW,198,3.0,4.0,23,0.00,,,0.00,211,WeatherHawk,2013-06-07 13:47:00,
2013-06-07 06:51:00,78.4,35.3,29.69,SSW,205,3.0,3.0,21,0.00,,,0.00,226,WeatherHawk,2013-06-07 13:51:00,
2013-06-07 06:52:00,78.6,34.2,29.69,SSW,212,4.0,4.0,20,0.00,,,0.00,230,WeatherHawk,2013-06-07 13:52:00,
2013-06-07 06:53:00,79.0,31.8,29.69,SSW,212,4.0,4.0,18,0.00,,,0.00,236,WeatherHawk,2013-06-07 13:53:00,
2013-06-07 06:56:00,79.5,32.3,29.69,South,191,4.0,4.0,18,0.00,,,0.00,244,WeatherHawk,2013-06-07 13:56:00,
2013-06-07 06:57:00,79.7,32.4,29.69,South,177,4.0,4.0,18,0.00,,,0.00,248,WeatherHawk,2013-06-07 13:57:00,
2013-06-07 07:02:00,80.8,33.3,29.69,South,177,4.0,4.0,18,0.00,,,0.00,265,WeatherHawk,2013-06-07 14:02:00,
2013-06-07 07:04:00,81.1,33.6,29.69,South,170,5.0,5.0,18,0.00,,,0.00,277,WeatherHawk,2013-06-07 14:04:00,
2013-06-07 07:07:00,81.3,33.7,29.69,South,182,5.0,-999.0,18,0.00,,,0.00,286,WeatherHawk,2013-06-07 14:07:00,
2013-06-07 07:11:00,81.7,34.0,29.69,South,180,4.0,6.0,18,0.00,,,0.00,302,WeatherHawk,2013-06-07 14:11:00,
2013-06-07 07:13:00,81.9,34.2,29.69,South,191,4.0,6.0,18,0.00,,,0.00,308,WeatherHawk,2013-06-07 14:13:00,
2013-06-07 07:14:00,82.0,32.9,29.69,South,183,3.0,6.0,17,0.00,,,0.00,312,WeatherHawk,2013-06-07 14:14:00,
2013-06-07 07:16:00,82.2,33.0,29.69,South,178,4.0,6.0,17,0.00,,,0.00,319,WeatherHawk,2013-06-07 14:16:00,
2013-06-07 07:17:00,82.2,33.0,29.69,SSE,164,4.0,6.0,17,0.00,,,0.00,323,WeatherHawk,2013-06-07 14:17:00,
2013-06-07 07:20:00,82.8,33.5,29.69,South,183,4.0,5.0,17,0.00,,,0.00,333,WeatherHawk,2013-06-07 14:20:00,
2013-06-07 07:22:00,82.9,33.6,29.69,South,183,5.0,5.0,17,0.00,,,0.00,341,WeatherHawk,2013-06-07 14:22:00,
2013-06-07 07:25:00,83.3,32.4,29.70,South,181,5.0,5.0,16,0.00,,,0.00,356,WeatherHawk,2013-06-07 14:25:00,
2013-06-07 07:26:00,83.5,32.5,29.70,South,174,5.0,5.0,16,0.00,,,0.00,362,WeatherHawk,2013-06-07 14:26:00,
2013-06-07 07:27:00,83.5,32.5,29.70,South,174,5.0,5.0,16,0.00,,,0.00,362,WeatherHawk,2013-06-07 14:27:00,
2013-06-07 07:28:00,83.7,32.7,29.70,SSW,205,5.0,6.0,16,0.00,,,0.00,370,WeatherHawk,2013-06-07 14:28:00,
2013-06-07 07:32:00,83.8,32.8,29.70,SSW,195,5.0,6.0,16,0.00,,,0.00,380,WeatherHawk,2013-06-07 14:32:00,
2013-06-07 07:37:00,84.2,34.6,29.70,South,191,8.0,8.0,17,0.00,,,0.00,401,WeatherHawk,2013-06-07 14:37:00,
2013-06-07 07:38:00,84.4,33.3,29.70,South,189,8.0,8.0,16,0.00,,,0.00,407,WeatherHawk,2013-06-07 14:38:00,
2013-06-07 07:42:00,84.7,32.0,29.70,South,191,8.0,8.0,15,0.00,,,0.00,420,WeatherHawk,2013-06-07 14:42:00,
2013-06-07 07:45:00,85.3,32.4,29.70,South,187,7.0,8.0,15,0.00,,,0.00,431,WeatherHawk,2013-06-07 14:45:00,
2013-06-07 07:47:00,85.3,32.4,29.70,South,186,8.0,-999.0,15,0.00,,,0.00,438,WeatherHawk,2013-06-07 14:47:00,
2013-06-07 07:48:00,85.6,31.0,29.70,South,187,9.0,9.0,14,0.00,,,0.00,444,WeatherHawk,2013-06-07 14:48:00,
2013-06-07 07:50:00,85.6,32.7,29.70,SSW,196,7.0,9.0,15,0.00,,,0.00,452,WeatherHawk,2013-06-07 14:50:00,
2013-06-07 07:52:00,85.6,32.7,29.70,South,189,7.0,-999.0,15,0.00,,,0.00,456,WeatherHawk,2013-06-07 14:52:00,
2013-06-07 07:53:00,85.8,32.8,29.70,South,179,9.0,9.0,15,0.00,,,0.00,463,WeatherHawk,2013-06-07 14:53:00,
2013-06-07 07:57:00,86.2,33.1,29.70,SSW,192,7.0,9.0,15,0.00,,,0.00,474,WeatherHawk,2013-06-07 14:57:00,
2013-06-07 07:58:00,86.5,31.7,29.70,South,184,9.0,11.0,14,0.00,,,0.00,481,WeatherHawk,2013-06-07 14:58:00,
2013-06-07 08:00:00,86.7,31.8,29.70,South,191,9.0,11.0,14,0.00,,,0.00,488,WeatherHawk,2013-06-07 15:00:00,
2013-06-07 08:02:00,86.9,31.9,29.70,SSW,200,8.0,11.0,14,0.00,,,0.00,497,WeatherHawk,2013-06-07 15:02:00,
2013-06-07 08:07:00,87.3,32.2,29.70,SSW,202,7.0,11.0,14,0.00,,,0.00,514,WeatherHawk,2013-06-07 15:07:00,
2013-06-07 08:08:00,87.6,32.5,29.70,South,189,8.0,11.0,14,0.00,,,0.00,521,WeatherHawk,2013-06-07 15:08:00,
2013-06-07 08:12:00,87.8,32.7,29.70,SSW,195,10.0,11.0,14,0.00,,,0.00,531,WeatherHawk,2013-06-07 15:12:00,
2013-06-07 08:13:00,87.8,32.7,29.70,South,187,10.0,11.0,14,0.00,,,0.00,540,WeatherHawk,2013-06-07 15:13:00,
2013-06-07 08:14:00,87.8,32.7,29.70,South,180,10.0,11.0,14,0.00,,,0.00,543,WeatherHawk,2013-06-07 15:14:00,
2013-06-07 08:17:00,87.6,34.2,29.70,South,185,10.0,11.0,15,0.00,,,0.00,550,WeatherHawk,2013-06-07 15:17:00,
2013-06-07 08:20:00,88.0,34.5,29.70,SSW,208,9.0,11.0,15,0.00,,,0.00,565,WeatherHawk,2013-06-07 15:20:00,
2013-06-07 08:23:00,88.2,36.3,29.70,South,190,11.0,11.0,16,0.00,,,0.00,575,WeatherHawk,2013-06-07 15:23:00,
2013-06-07 08:27:00,88.2,36.3,29.70,SSW,205,8.0,11.0,16,0.00,,,0.00,586,WeatherHawk,2013-06-07 15:27:00,
2013-06-07 08:28:00,88.2,36.3,29.70,SSW,199,8.0,0.0,16,0.00,,,0.00,591,WeatherHawk,2013-06-07 15:28:00,
2013-06-07 08:30:00,88.3,36.4,29.70,SSW,212,9.0,11.0,16,0.00,,,0.00,599,WeatherHawk,2013-06-07 15:30:00,
2013-06-07 08:32:00,88.3,36.4,29.70,SSW,205,9.0,11.0,16,0.00,,,0.00,604,WeatherHawk,2013-06-07 15:32:00,
2013-06-07 08:33:00,88.7,36.7,29.70,South,190,7.0,11.0,16,0.00,,,0.00,611,WeatherHawk,2013-06-07 15:33:00,
2013-06-07 08:35:00,88.7,36.7,29.70,SSW,203,8.0,11.0,16,0.00,,,0.00,617,WeatherHawk,2013-06-07 15:35:00,
2013-06-07 08:37:00,88.9,36.9,29.70,South,190,7.0,11.0,16,0.00,,,0.00,616,WeatherHawk,2013-06-07 15:37:00,
2013-06-07 08:39:00,89.1,38.5,29.70,SSW,206,7.0,10.0,17,0.00,,,0.00,631,WeatherHawk,2013-06-07 15:39:00,
2013-06-07 08:40:00,89.2,37.1,29.70,SSW,199,10.0,10.0,16,0.00,,,0.00,637,WeatherHawk,2013-06-07 15:40:00,
2013-06-07 08:42:00,89.2,37.1,29.70,SSW,209,9.0,10.0,16,0.00,,,0.00,638,WeatherHawk,2013-06-07 15:42:00,
2013-06-07 08:43:00,89.4,38.8,29.70,SSW,197,9.0,10.0,17,0.00,,,0.00,647,WeatherHawk,2013-06-07 15:43:00,
2013-06-07 08:45:00,89.8,37.6,29.70,South,185,8.0,10.0,16,0.00,,,0.00,653,WeatherHawk,2013-06-07 15:45:00,
2013-06-07 08:50:00,89.8,37.6,29.70,South,186,11.0,12.0,16,0.00,,,0.00,671,WeatherHawk,2013-06-07 15:50:00,
2013-06-07 08:52:00,89.8,37.6,29.70,South,181,11.0,12.0,16,0.00,,,0.00,676,WeatherHawk,2013-06-07 15:52:00,
2013-06-07 08:54:00,90.3,36.4,29.70,South,191,11.0,12.0,15,0.00,,,0.00,683,WeatherHawk,2013-06-07 15:54:00,
2013-06-07 08:56:00,90.5,36.5,29.70,SSW,205,9.0,12.0,15,0.00,,,0.00,688,WeatherHawk,2013-06-07 15:56:00,
2013-06-07 08:57:00,90.7,36.7,29.70,South,187,9.0,12.0,15,0.00,,,0.00,692,WeatherHawk,2013-06-07 15:57:00,
2013-06-07 08:58:00,90.7,36.7,29.71,SSW,200,9.0,14.0,15,0.00,,,0.00,696,WeatherHawk,2013-06-07 15:58:00,
2013-06-07 09:00:00,91.0,36.9,29.71,SSW,198,10.0,14.0,15,0.00,,,0.00,700,WeatherHawk,2013-06-07 16:00:00,
2013-06-07 09:02:00,91.0,36.9,29.71,SSW,198,10.0,14.0,15,0.00,,,0.00,700,WeatherHawk,2013-06-07 16:02:00,
2013-06-07 09:04:00,91.2,37.1,29.71,South,177,8.0,14.0,15,0.00,,,0.00,718,WeatherHawk,2013-06-07 16:04:00,
2013-06-07 09:06:00,91.2,35.3,29.71,South,183,8.0,14.0,14,0.00,,,0.00,723,WeatherHawk,2013-06-07 16:06:00,
2013-06-07 09:07:00,91.2,35.3,29.71,South,183,8.0,14.0,14,0.00,,,0.00,723,WeatherHawk,2013-06-07 16:07:00,
2013-06-07 09:08:00,91.4,35.5,29.71,SSW,194,9.0,12.0,14,0.00,,,0.00,727,WeatherHawk,2013-06-07 16:08:00,
2013-06-07 09:12:00,91.6,37.4,29.71,South,189,8.0,12.0,15,0.00,,,0.00,742,WeatherHawk,2013-06-07 16:12:00,
2013-06-07 09:13:00,91.9,35.9,29.71,South,182,10.0,12.0,14,0.00,,,0.00,749,WeatherHawk,2013-06-07 16:13:00,
2013-06-07 09:14:00,91.9,35.9,29.71,SSW,199,8.0,12.0,14,0.00,,,0.00,749,WeatherHawk,2013-06-07 16:14:00,
2013-06-07 09:15:00,91.8,35.8,29.71,SSW,202,9.0,12.0,14,0.00,,,0.00,754,WeatherHawk,2013-06-07 16:15:00,
2013-06-07 09:17:00,91.9,35.9,29.71,SSW,203,9.0,12.0,14,0.00,,,0.00,758,WeatherHawk,2013-06-07 16:17:00,
2013-06-07 09:19:00,91.8,35.8,29.71,South,176,10.0,0.0,14,0.00,,,0.00,764,WeatherHawk,2013-06-07 16:19:00,
2013-06-07 09:20:00,91.9,35.9,29.71,SSW,200,9.0,11.0,14,0.00,,,0.00,768,WeatherHawk,2013-06-07 16:20:00,
2013-06-07 09:22:00,92.1,36.0,29.71,South,183,6.0,11.0,14,0.00,,,0.00,771,WeatherHawk,2013-06-07 16:22:00,
2013-06-07 09:26:00,92.5,36.3,29.71,SSW,206,10.0,11.0,14,0.00,,,0.00,786,WeatherHawk,2013-06-07 16:26:00,
2013-06-07 09:27:00,92.5,36.3,29.71,SSW,210,10.0,-999.0,14,0.00,,,0.00,787,WeatherHawk,2013-06-07 16:27:00,
2013-06-07 09:30:00,92.3,36.2,29.70,SSW,211,10.0,11.0,14,0.00,,,0.00,800,WeatherHawk,2013-06-07 16:30:00,
2013-06-07 09:32:00,92.5,36.3,29.71,SSW,192,7.0,-999.0,14,0.00,,,0.00,802,WeatherHawk,2013-06-07 16:32:00,
2013-06-07 09:35:00,93.0,36.7,29.71,SSW,206,6.0,11.0,14,0.00,,,0.00,816,WeatherHawk,2013-06-07 16:35:00,
2013-06-07 09:36:00,93.0,36.7,29.71,SSW,202,11.0,11.0,14,0.00,,,0.00,821,WeatherHawk,2013-06-07 16:36:00,
2013-06-07 09:39:00,93.4,35.2,29.71,SSW,206,9.0,11.0,13,0.00,,,0.00,829,WeatherHawk,2013-06-07 16:39:00,
2013-06-07 09:40:00,93.4,35.2,29.71,SSW,204,8.0,11.0,13,0.00,,,0.00,831,WeatherHawk,2013-06-07 16:40:00,
2013-06-07 09:42:00,93.6,35.3,29.71,SW,216,6.0,11.0,13,0.00,,,0.00,834,WeatherHawk,2013-06-07 16:42:00,
2013-06-07 09:47:00,93.7,35.4,29.71,SW,229,7.0,11.0,13,0.00,,,0.00,848,WeatherHawk,2013-06-07 16:47:00,
2013-06-07 09:48:00,93.9,35.6,29.71,WSW,249,7.0,9.0,13,0.00,,,0.00,851,WeatherHawk,2013-06-07 16:48:00,
2013-06-07 09:52:00,93.7,35.4,29.71,South,189,3.0,-999.0,13,0.00,,,0.00,862,WeatherHawk,2013-06-07 16:52:00,
2013-06-07 09:55:00,94.3,33.8,29.71,SW,216,7.0,9.0,12,0.00,,,0.00,873,WeatherHawk,2013-06-07 16:55:00,
2013-06-07 09:58:00,94.1,33.7,29.71,SSW,195,5.0,0.0,12,0.00,,,0.00,880,WeatherHawk,2013-06-07 16:58:00,
2013-06-07 10:01:00,94.5,36.0,29.71,SSW,200,7.0,9.0,13,0.00,,,0.00,888,WeatherHawk,2013-06-07 17:01:00,
2013-06-07 10:04:00,94.6,36.1,29.71,SSW,199,6.0,9.0,13,0.00,,,0.00,902,WeatherHawk,2013-06-07 17:04:00,
2013-06-07 10:06:00,94.6,34.1,29.71,SSW,199,4.0,9.0,12,0.00,,,0.00,904,WeatherHawk,2013-06-07 17:06:00,
2013-06-07 10:07:00,94.6,34.1,29.71,SSW,199,4.0,9.0,12,0.00,,,0.00,904,WeatherHawk,2013-06-07 17:07:00,
2013-06-07 10:10:00,94.6,34.1,29.71,SW,214,6.0,9.0,12,0.00,,,0.00,910,WeatherHawk,2013-06-07 17:10:00,
2013-06-07 10:12:00,94.6,34.1,29.71,SW,214,6.0,9.0,12,0.00,,,0.00,910,WeatherHawk,2013-06-07 17:12:00,
2013-06-07 10:14:00,95.2,34.5,29.71,SSW,204,3.0,9.0,12,0.00,,,0.00,920,WeatherHawk,2013-06-07 17:14:00,
2013-06-07 10:17:00,95.7,34.9,29.71,SSW,196,6.0,9.0,12,0.00,,,0.00,930,WeatherHawk,2013-06-07 17:17:00,
2013-06-07 10:19:00,95.2,34.5,29.71,SSW,193,6.0,9.0,12,0.00,,,0.00,935,WeatherHawk,2013-06-07 17:19:00,
2013-06-07 10:20:00,95.4,34.7,29.71,South,188,5.0,9.0,12,0.00,,,0.00,936,WeatherHawk,2013-06-07 17:20:00,
2013-06-07 10:24:00,95.4,34.7,29.71,SSE,168,5.0,9.0,12,0.00,,,0.00,946,WeatherHawk,2013-06-07 17:24:00,
2013-06-07 10:27:00,95.4,34.7,29.71,SSE,159,3.0,-999.0,12,0.00,,,0.00,950,WeatherHawk,2013-06-07 17:27:00,
2013-06-07 10:29:00,95.5,32.6,29.71,South,189,5.0,10.0,11,0.00,,,0.00,958,WeatherHawk,2013-06-07 17:29:00,
2013-06-07 10:30:00,95.7,34.9,29.71,SSE,160,3.0,10.0,12,0.00,,,0.00,963,WeatherHawk,2013-06-07 17:30:00,
2013-06-07 10:34:00,96.4,35.5,29.71,South,191,8.0,10.0,12,0.00,,,0.00,969,WeatherHawk,2013-06-07 17:34:00,
2013-06-07 10:37:00,96.1,35.2,29.71,South,172,8.0,-999.0,12,0.00,,,0.00,970,WeatherHawk,2013-06-07 17:37:00,
2013-06-07 10:38:00,96.3,33.2,29.71,SSE,147,6.0,11.0,11,0.00,,,0.00,976,WeatherHawk,2013-06-07 17:38:00,
2013-06-07 10:39:00,96.3,33.2,29.71,SE,143,3.0,11.0,11,0.00,,,0.00,980,WeatherHawk,2013-06-07 17:39:00,
2013-06-07 10:44:00,96.8,35.8,29.71,South,183,9.0,11.0,12,0.00,,,0.00,989,WeatherHawk,2013-06-07 17:44:00,
2013-06-07 10:47:00,96.4,35.5,29.71,ESE,119,3.0,-999.0,12,0.00,,,0.00,992,WeatherHawk,2013-06-07 17:47:00,
2013-06-07 10:48:00,97.0,35.9,29.71,SSW,192,3.0,9.0,12,0.00,,,0.00,997,WeatherHawk,2013-06-07 17:48:00,
2013-06-07 10:50:00,97.0,35.9,29.71,SSE,168,4.0,9.0,12,0.00,,,0.00,1002,WeatherHawk,2013-06-07 17:50:00,
2013-06-07 10:51:00,97.0,33.7,29.71,South,187,5.0,9.0,11,0.00,,,0.00,1003,WeatherHawk,2013-06-07 17:51:00,
2013-06-07 10:52:00,97.0,33.7,29.71,South,187,5.0,9.0,11,0.00,,,0.00,1003,WeatherHawk,2013-06-07 17:52:00,
2013-06-07 10:53:00,97.0,35.9,29.71,SSE,158,6.0,9.0,12,0.00,,,0.00,1007,WeatherHawk,2013-06-07 17:53:00,
2013-06-07 10:57:00,97.0,35.9,29.71,SSW,206,3.0,9.0,12,0.00,,,0.00,1015,WeatherHawk,2013-06-07 17:57:00,
2013-06-07 10:58:00,97.0,35.9,29.70,SSE,158,6.0,9.0,12,0.00,,,0.00,1016,WeatherHawk,2013-06-07 17:58:00,
2013-06-07 11:02:00,97.5,34.1,29.70,South,171,6.0,9.0,11,0.00,,,0.00,1022,WeatherHawk,2013-06-07 18:02:00,
2013-06-07 11:04:00,97.5,36.3,29.70,SE,144,5.0,9.0,12,0.00,,,0.00,1025,WeatherHawk,2013-06-07 18:04:00,
2013-06-07 11:06:00,97.9,36.6,29.70,SSE,161,5.0,9.0,12,0.00,,,0.00,1030,WeatherHawk,2013-06-07 18:06:00,
2013-06-07 11:07:00,97.9,36.6,29.70,SSE,161,5.0,9.0,12,0.00,,,0.00,1030,WeatherHawk,2013-06-07 18:07:00,
2013-06-07 11:10:00,98.6,37.2,29.70,SSW,192,6.0,9.0,12,0.00,,,0.00,1037,WeatherHawk,2013-06-07 18:10:00,
2013-06-07 11:12:00,98.6,35.0,29.70,SSE,160,3.0,9.0,11,0.00,,,0.00,1041,WeatherHawk,2013-06-07 18:12:00,
2013-06-07 11:15:00,98.2,34.7,29.70,SSE,150,1.0,9.0,11,0.00,,,0.00,1045,WeatherHawk,2013-06-07 18:15:00,
2013-06-07 11:17:00,98.4,34.8,29.70,SSW,209,6.0,0.0,11,0.00,,,0.00,1048,WeatherHawk,2013-06-07 18:17:00,
2013-06-07 11:18:00,98.4,34.8,29.70,SSW,207,5.0,10.0,11,0.00,,,0.00,1050,WeatherHawk,2013-06-07 18:18:00,
2013-06-07 11:19:00,98.6,35.0,29.70,SSW,210,6.0,10.0,11,0.00,,,0.00,1051,WeatherHawk,2013-06-07 18:19:00,
2013-06-07 11:22:00,98.8,35.1,29.70,SSW,210,7.0,10.0,11,0.00,,,0.00,1053,WeatherHawk,2013-06-07 18:22:00,
2013-06-07 11:24:00,99.0,35.2,29.70,SW,221,2.0,10.0,11,0.00,,,0.00,1055,WeatherHawk,2013-06-07 18:24:00,
2013-06-07 11:25:00,99.0,35.2,29.70,SW,222,3.0,10.0,11,0.00,,,0.00,1058,WeatherHawk,2013-06-07 18:25:00,
2013-06-07 11:27:00,99.3,35.5,29.70,SW,230,7.0,10.0,11,0.00,,,0.00,1062,WeatherHawk,2013-06-07 18:27:00,
2013-06-07 11:28:00,99.1,35.4,29.70,SW,216,6.0,10.0,11,0.00,,,0.00,1065,WeatherHawk,2013-06-07 18:28:00,
2013-06-07 11:32:00,99.1,33.0,29.70,SSW,206,4.0,10.0,10,0.00,,,0.00,1068,WeatherHawk,2013-06-07 18:32:00,
2013-06-07 11:37:00,99.7,33.4,29.70,SSW,193,4.0,10.0,10,0.00,,,0.00,1071,WeatherHawk,2013-06-07 18:37:00,
2013-06-07 11:42:00,99.9,33.5,29.70,SSE,161,3.0,-999.0,10,0.00,,,0.00,1079,WeatherHawk,2013-06-07 18:42:00,
2013-06-07 11:43:00,100.4,33.9,29.70,SW,217,5.0,9.0,10,0.00,,,0.00,1082,WeatherHawk,2013-06-07 18:43:00,
2013-06-07 11:44:00,100.8,31.6,29.69,South,172,6.0,9.0,9,0.00,,,0.00,1084,WeatherHawk,2013-06-07 18:44:00,
2013-06-07 11:46:00,100.4,31.3,29.69,South,178,7.0,9.0,9,0.00,,,0.00,1087,WeatherHawk,2013-06-07 18:46:00,
2013-06-07 11:48:00,100.4,33.9,29.69,SSW,193,9.0,9.0,10,0.00,,,0.00,1086,WeatherHawk,2013-06-07 18:48:00,
2013-06-07 11:51:00,100.6,34.1,29.69,SSW,212,5.0,9.0,10,0.00,,,0.00,1089,WeatherHawk,2013-06-07 18:51:00,
2013-06-07 11:52:00,100.6,34.1,29.69,SSW,212,5.0,-999.0,10,0.00,,,0.00,1089,WeatherHawk,2013-06-07 18:52:00,
2013-06-07 11:56:00,100.4,31.3,29.69,South,170,6.0,9.0,9,0.00,,,0.00,1094,WeatherHawk,2013-06-07 18:56:00,
2013-06-07 11:57:00,100.6,31.4,29.69,SSW,195,4.0,9.0,9,0.00,,,0.00,1095,WeatherHawk,2013-06-07 18:57:00,
2013-06-07 11:58:00,101.1,31.8,29.69,South,184,5.0,0.0,9,0.00,,,0.00,1096,WeatherHawk,2013-06-07 18:58:00,
2013-06-07 12:02:00,101.7,32.2,29.69,SW,224,8.0,10.0,9,0.00,,,0.00,1091,WeatherHawk,2013-06-07 19:02:00,
2013-06-07 12:07:00,102.0,32.5,29.69,SSE,156,7.0,12.0,9,0.00,,,0.00,1104,WeatherHawk,2013-06-07 19:07:00,
2013-06-07 12:09:00,101.5,32.1,29.69,SSW,212,5.0,12.0,9,0.00,,,0.00,1103,WeatherHawk,2013-06-07 19:09:00,
2013-06-07 12:10:00,101.7,32.2,29.69,SW,219,8.0,12.0,9,0.00,,,0.00,1103,WeatherHawk,2013-06-07 19:10:00,
2013-06-07 12:13:00,102.4,29.9,29.68,SSW,193,7.0,12.0,8,0.00,,,0.00,1107,WeatherHawk,2013-06-07 19:13:00,
2013-06-07 12:14:00,102.0,32.5,29.68,South,170,8.0,12.0,9,0.00,,,0.00,1106,WeatherHawk,2013-06-07 19:14:00,
2013-06-07 12:15:00,101.7,32.2,29.68,SSE,159,5.0,12.0,9,0.00,,,0.00,1103,WeatherHawk,2013-06-07 19:15:00,
2013-06-07 12:17:00,101.7,32.2,29.68,SW,224,7.0,-999.0,9,0.00,,,0.00,1108,WeatherHawk,2013-06-07 19:17:00,
2013-06-07 12:19:00,102.6,30.0,29.68,SSE,155,4.0,11.0,8,0.00,,,0.00,1109,WeatherHawk,2013-06-07 19:19:00,
2013-06-07 12:22:00,102.9,30.3,29.68,WSW,253,4.0,11.0,8,0.00,,,0.00,1106,WeatherHawk,2013-06-07 19:22:00,
2013-06-07 12:27:00,102.9,30.3,29.68,SW,230,8.0,11.0,8,0.00,,,0.00,1108,WeatherHawk,2013-06-07 19:27:00,
2013-06-07 12:32:00,102.6,30.0,29.68,West,272,9.0,11.0,8,0.00,,,0.00,1107,WeatherHawk,2013-06-07 19:32:00,
2013-06-07 12:36:00,103.5,30.7,29.68,WSW,258,6.0,11.0,8,0.00,,,0.00,1111,WeatherHawk,2013-06-07 19:36:00,
2013-06-07 12:38:00,103.5,30.7,29.68,SW,223,10.0,10.0,8,0.00,,,0.00,1111,WeatherHawk,2013-06-07 19:38:00,
2013-06-07 12:42:00,103.3,30.5,29.68,WSW,248,9.0,10.0,8,0.00,,,0.00,1111,WeatherHawk,2013-06-07 19:42:00,
2013-06-07 12:45:00,103.5,30.7,29.68,WSW,253,6.0,10.0,8,0.00,,,0.00,1111,WeatherHawk,2013-06-07 19:45:00,
2013-06-07 12:46:00,103.6,30.8,29.68,SW,220,9.0,10.0,8,0.00,,,0.00,1110,WeatherHawk,2013-06-07 19:46:00,
2013-06-07 12:47:00,103.6,30.8,29.68,SW,220,9.0,-999.0,8,0.00,,,0.00,1110,WeatherHawk,2013-06-07 19:47:00,
2013-06-07 12:51:00,104.2,31.2,29.68,South,172,7.0,12.0,8,0.00,,,0.00,1113,WeatherHawk,2013-06-07 19:51:00,
2013-06-07 12:52:00,104.2,31.2,29.68,South,172,7.0,12.0,8,0.00,,,0.00,1113,WeatherHawk,2013-06-07 19:52:00,
2013-06-07 12:55:00,104.0,31.1,29.67,WSW,256,6.0,12.0,8,0.00,,,0.00,1113,WeatherHawk,2013-06-07 19:55:00,
2013-06-07 12:57:00,104.9,28.4,29.67,SSW,201,4.0,11.0,7,0.00,,,0.00,1106,WeatherHawk,2013-06-07 19:57:00,
2013-06-07 12:58:00,104.9,28.4,29.67,SSW,192,10.0,11.0,7,0.00,,,0.00,1111,WeatherHawk,2013-06-07 19:58:00,
2013-06-07 12:59:00,104.7,28.3,29.67,SSW,201,6.0,11.0,7,0.00,,,0.00,1108,WeatherHawk,2013-06-07 19:59:00,
2013-06-07 13:01:00,104.4,31.3,29.67,SW,235,4.0,-999.0,8,0.00,,,0.00,1103,WeatherHawk,2013-06-07 20:01:00,
2013-06-07 13:04:00,104.9,31.7,29.67,SW,235,7.0,11.0,8,0.00,,,0.00,1101,WeatherHawk,2013-06-07 20:04:00,
2013-06-07 13:06:00,104.9,31.7,29.67,South,183,4.0,11.0,8,0.00,,,0.00,1104,WeatherHawk,2013-06-07 20:06:00,
2013-06-07 13:11:00,104.5,31.4,29.67,SW,216,6.0,12.0,8,0.00,,,0.00,1102,WeatherHawk,2013-06-07 20:11:00,
2013-06-07 13:12:00,104.7,31.6,29.67,SSW,205,3.0,12.0,8,0.00,,,0.00,1101,WeatherHawk,2013-06-07 20:12:00,
2013-06-07 13:16:00,105.1,31.8,29.67,SW,222,9.0,12.0,8,0.00,,,0.00,1095,WeatherHawk,2013-06-07 20:16:00,
2013-06-07 13:19:00,105.6,32.2,29.66,SSW,205,3.0,12.0,8,0.00,,,0.00,1094,WeatherHawk,2013-06-07 20:19:00,
2013-06-07 13:22:00,105.8,32.4,29.66,WSW,239,6.0,12.0,8,0.00,,,0.00,1094,WeatherHawk,2013-06-07 20:22:00,
2013-06-07 13:24:00,105.8,32.4,29.66,WSW,258,3.0,12.0,8,0.00,,,0.00,1094,WeatherHawk,2013-06-07 20:24:00,
2013-06-07 13:25:00,106.0,32.5,29.66,WSW,251,9.0,12.0,8,0.00,,,0.00,1094,WeatherHawk,2013-06-07 20:25:00,
2013-06-07 13:31:00,106.0,32.5,29.66,WSW,237,9.0,9.0,8,0.00,,,0.00,1085,WeatherHawk,2013-06-07 20:31:00,
2013-06-07 13:32:00,106.2,32.6,29.66,WSW,240,6.0,9.0,8,0.00,,,0.00,1082,WeatherHawk,2013-06-07 20:32:00,
2013-06-07 13:36:00,106.2,32.6,29.66,West,262,5.0,-999.0,8,0.00,,,0.00,1080,WeatherHawk,2013-06-07 20:36:00,
2013-06-07 13:37:00,106.0,32.5,29.66,SW,228,6.0,12.0,8,0.00,,,0.00,1078,WeatherHawk,2013-06-07 20:37:00,
2013-06-07 13:39:00,106.0,32.5,29.66,West,271,6.0,12.0,8,0.00,,,0.00,1074,WeatherHawk,2013-06-07 20:39:00,
2013-06-07 13:41:00,106.3,32.8,29.66,WNW,287,5.0,12.0,8,0.00,,,0.00,1070,WeatherHawk,2013-06-07 20:41:00,
2013-06-07 13:46:00,106.0,29.2,29.66,SSW,208,3.0,12.0,7,0.00,,,0.00,1067,WeatherHawk,2013-06-07 20:46:00,
2013-06-07 13:47:00,106.2,29.3,29.65,SSE,157,7.0,10.0,7,0.00,,,0.00,1066,WeatherHawk,2013-06-07 20:47:00,
2013-06-07 13:50:00,106.0,29.2,29.65,South,172,5.0,10.0,7,0.00,,,0.00,1066,WeatherHawk,2013-06-07 20:50:00,
2013-06-07 13:51:00,106.0,29.2,29.65,SSW,196,2.0,10.0,7,0.00,,,0.00,1065,WeatherHawk,2013-06-07 20:51:00,
2013-06-07 13:56:00,107.1,30.0,29.65,WSW,246,2.0,10.0,7,0.00,,,0.00,1056,WeatherHawk,2013-06-07 20:56:00,
2013-06-07 13:57:00,107.4,30.2,29.65,WSW,258,5.0,8.0,7,0.00,,,0.00,1052,WeatherHawk,2013-06-07 20:57:00,
2013-06-07 13:59:00,107.6,30.4,29.65,WSW,257,10.0,10.0,7,0.00,,,0.00,1049,WeatherHawk,2013-06-07 20:59:00,
2013-06-07 14:03:00,107.4,30.2,29.65,WSW,246,7.0,8.0,7,0.00,,,0.00,1036,WeatherHawk,2013-06-07 21:03:00,
2013-06-07 14:04:00,107.4,30.2,29.65,West,263,7.0,8.0,7,0.00,,,0.00,1038,WeatherHawk,2013-06-07 21:04:00,
2013-06-07 14:06:00,107.4,30.2,29.65,WNW,284,9.0,9.0,7,0.00,,,0.00,1038,WeatherHawk,2013-06-07 21:06:00,
2013-06-07 14:09:00,107.6,30.4,29.65,SW,235,3.0,12.0,7,0.00,,,0.00,1033,WeatherHawk,2013-06-07 21:09:00,
2013-06-07 14:11:00,108.0,30.6,29.65,WSW,246,7.0,-999.0,7,0.00,,,0.00,1029,WeatherHawk,2013-06-07 21:11:00,
2013-06-07 14:12:00,107.8,30.5,29.65,SW,235,4.0,12.0,7,0.00,,,0.00,1028,WeatherHawk,2013-06-07 21:12:00,
2013-06-07 14:15:00,107.6,30.4,29.65,SW,233,3.0,12.0,7,0.00,,,0.00,1022,WeatherHawk,2013-06-07 21:15:00,
2013-06-07 14:16:00,107.4,30.2,29.64,SSW,208,7.0,12.0,7,0.00,,,0.00,1015,WeatherHawk,2013-06-07 21:16:00,
2013-06-07 14:19:00,107.2,30.1,29.64,WSW,245,6.0,10.0,7,0.00,,,0.00,1016,WeatherHawk,2013-06-07 21:19:00,
2013-06-07 14:21:00,107.4,30.2,29.64,SW,232,7.0,10.0,7,0.00,,,0.00,1013,WeatherHawk,2013-06-07 21:21:00,
2013-06-07 14:24:00,107.6,30.4,29.64,North,3,2.0,10.0,7,0.00,,,0.00,1006,WeatherHawk,2013-06-07 21:24:00,
2013-06-07 14:25:00,107.6,30.4,29.64,WSW,240,8.0,10.0,7,0.00,,,0.00,1003,WeatherHawk,2013-06-07 21:25:00,
2013-06-07 14:26:00,107.8,30.5,29.64,WSW,243,4.0,-999.0,7,0.00,,,0.00,1001,WeatherHawk,2013-06-07 21:26:00,
2013-06-07 14:30:00,108.0,30.6,29.64,West,260,4.0,9.0,7,0.00,,,0.00,996,WeatherHawk,2013-06-07 21:30:00,
2013-06-07 14:31:00,108.0,30.6,29.64,South,173,4.0,-999.0,7,0.00,,,0.00,995,WeatherHawk,2013-06-07 21:31:00,
2013-06-07 14:32:00,108.0,30.6,29.64,SSW,197,6.0,9.0,7,0.00,,,0.00,993,WeatherHawk,2013-06-07 21:32:00,
2013-06-07 14:36:00,108.0,30.6,29.64,WSW,257,4.0,9.0,7,0.00,,,0.00,983,WeatherHawk,2013-06-07 21:36:00,
2013-06-07 14:37:00,108.1,30.8,29.63,NW,321,2.0,11.0,7,0.00,,,0.00,982,WeatherHawk,2013-06-07 21:37:00,
2013-06-07 14:38:00,108.3,30.9,29.63,NW,309,6.0,11.0,7,0.00,,,0.00,974,WeatherHawk,2013-06-07 21:38:00,
2013-06-07 14:45:00,108.1,27.0,29.63,SW,232,11.0,11.0,6,0.00,,,0.00,961,WeatherHawk,2013-06-07 21:45:00,
2013-06-07 14:51:00,107.8,26.7,29.63,SSW,201,5.0,15.0,6,0.00,,,0.00,945,WeatherHawk,2013-06-07 21:51:00,
2013-06-07 14:55:00,107.8,26.7,29.63,SSW,194,0.0,15.0,6,0.00,,,0.00,938,WeatherHawk,2013-06-07 21:55:00,
2013-06-07 14:56:00,108.0,26.9,29.63,North,349,0.0,-999.0,6,0.00,,,0.00,937,WeatherHawk,2013-06-07 21:56:00,
2013-06-07 15:00:00,109.6,28.0,29.63,WNW,303,1.0,9.0,6,0.00,,,0.00,925,WeatherHawk,2013-06-07 22:00:00,
2013-06-07 15:01:00,109.8,31.9,29.63,WNW,300,4.0,9.0,7,0.00,,,0.00,922,WeatherHawk,2013-06-07 22:01:00,
2013-06-07 15:03:00,109.9,28.3,29.62,SW,233,13.0,13.0,6,0.00,,,0.00,918,WeatherHawk,2013-06-07 22:03:00,
2013-06-07 15:06:00,108.7,27.4,29.62,WSW,247,8.0,9.0,6,0.00,,,0.00,910,WeatherHawk,2013-06-07 22:06:00,
2013-06-07 15:10:00,108.5,27.2,29.62,SW,234,6.0,14.0,6,0.00,,,0.00,899,WeatherHawk,2013-06-07 22:10:00,
2013-06-07 15:11:00,108.5,27.2,29.62,WSW,248,5.0,14.0,6,0.00,,,0.00,897,WeatherHawk,2013-06-07 22:11:00,
2013-06-07 15:19:00,108.5,27.2,29.62,West,274,3.0,10.0,6,0.00,,,0.00,873,WeatherHawk,2013-06-07 22:19:00,
2013-06-07 15:21:00,108.9,27.5,29.62,SW,221,1.0,10.0,6,0.00,,,0.00,868,WeatherHawk,2013-06-07 22:21:00,
2013-06-07 15:29:00,109.0,27.6,29.61,SW,231,10.0,11.0,6,0.00,,,0.00,847,WeatherHawk,2013-06-07 22:29:00,
2013-06-07 15:30:00,108.9,27.5,29.61,SW,224,9.0,11.0,6,0.00,,,0.00,843,WeatherHawk,2013-06-07 22:30:00,
2013-06-07 15:31:00,108.9,27.5,29.61,SW,224,10.0,-999.0,6,0.00,,,0.00,842,WeatherHawk,2013-06-07 22:31:00,
2013-06-07 15:36:00,108.7,27.4,29.61,WSW,253,3.0,-999.0,6,0.00,,,0.00,824,WeatherHawk,2013-06-07 22:36:00,
2013-06-07 15:40:00,108.9,27.5,29.61,West,278,8.0,15.0,6,0.00,,,0.00,812,WeatherHawk,2013-06-07 22:40:00,
2013-06-07 15:41:00,108.9,27.5,29.61,West,278,8.0,15.0,6,0.00,,,0.00,812,WeatherHawk,2013-06-07 22:41:00,
2013-06-07 15:42:00,108.7,27.4,29.61,West,277,4.0,15.0,6,0.00,,,0.00,806,WeatherHawk,2013-06-07 22:42:00,
2013-06-07 15:47:00,109.4,31.7,29.60,WSW,250,7.0,11.0,7,0.00,,,0.00,790,WeatherHawk,2013-06-07 22:47:00,
2013-06-07 15:48:00,109.2,27.8,29.60,West,263,8.0,11.0,6,0.00,,,0.00,788,WeatherHawk,2013-06-07 22:48:00,
2013-06-07 15:50:00,109.2,31.5,29.60,WSW,255,6.0,11.0,7,0.00,,,0.00,781,WeatherHawk,2013-06-07 22:50:00,
2013-06-07 15:54:00,109.4,27.9,29.60,WSW,251,5.0,11.0,6,0.00,,,0.00,768,WeatherHawk,2013-06-07 22:54:00,
2013-06-07 15:56:00,109.6,31.8,29.60,WSW,254,13.0,0.0,7,0.00,,,0.00,762,WeatherHawk,2013-06-07 22:56:00,
2013-06-07 15:57:00,109.6,31.8,29.60,WSW,257,12.0,0.0,7,0.00,,,0.00,760,WeatherHawk,2013-06-07 22:57:00,
2013-06-07 16:00:00,109.2,27.8,29.60,WNW,284,9.0,14.0,6,0.00,,,0.00,740,WeatherHawk,2013-06-07 23:00:00,
2013-06-07 16:01:00,109.2,27.8,29.60,West,268,4.0,14.0,6,0.00,,,0.00,746,WeatherHawk,2013-06-07 23:01:00,
2013-06-07 16:02:00,109.2,27.8,29.60,WNW,301,7.0,14.0,6,0.00,,,0.00,741,WeatherHawk,2013-06-07 23:02:00,
2013-06-07 16:06:00,109.4,27.9,29.60,WSW,239,12.0,14.0,6,0.00,,,0.00,728,WeatherHawk,2013-06-07 23:06:00,
2013-06-07 16:07:00,109.4,27.9,29.60,SW,231,11.0,14.0,6,0.00,,,0.00,723,WeatherHawk,2013-06-07 23:07:00,
2013-06-07 16:08:00,109.4,27.9,29.60,SW,221,10.0,14.0,6,0.00,,,0.00,719,WeatherHawk,2013-06-07 23:08:00,
2013-06-07 16:12:00,109.0,27.6,29.60,South,181,5.0,14.0,6,0.00,,,0.00,709,WeatherHawk,2013-06-07 23:12:00,
2013-06-07 16:13:00,108.9,27.5,29.60,South,183,5.0,14.0,6,0.00,,,0.00,706,WeatherHawk,2013-06-07 23:13:00,
2013-06-07 16:17:00,109.2,27.8,29.60,WSW,243,3.0,14.0,6,0.00,,,0.00,690,WeatherHawk,2013-06-07 23:17:00,
2013-06-07 16:22:00,109.4,31.7,29.60,West,262,9.0,13.0,7,0.00,,,0.00,670,WeatherHawk,2013-06-07 23:22:00,
2013-06-07 16:23:00,109.4,27.9,29.60,West,266,10.0,13.0,6,0.00,,,0.00,670,WeatherHawk,2013-06-07 23:23:00,
2013-06-07 16:26:00,109.4,27.9,29.59,SW,227,4.0,13.0,6,0.00,,,0.00,659,WeatherHawk,2013-06-07 23:26:00,
2013-06-07 16:29:00,109.9,28.3,29.59,West,274,3.0,12.0,6,0.00,,,0.00,648,WeatherHawk,2013-06-07 23:29:00,
2013-06-07 16:31:00,109.8,28.1,29.59,WSW,244,4.0,12.0,6,0.00,,,0.00,636,WeatherHawk,2013-06-07 23:31:00,
2013-06-07 16:34:00,110.3,28.5,29.59,SW,215,8.0,12.0,6,0.00,,,0.00,630,WeatherHawk,2013-06-07 23:34:00,
2013-06-07 16:39:00,109.6,28.0,29.59,SW,235,6.0,14.0,6,0.00,,,0.00,611,WeatherHawk,2013-06-07 23:39:00,
2013-06-07 16:40:00,109.4,27.9,29.59,SW,236,8.0,14.0,6,0.00,,,0.00,606,WeatherHawk,2013-06-07 23:40:00,
2013-06-07 16:42:00,109.6,28.0,29.59,West,259,7.0,-999.0,6,0.00,,,0.00,602,WeatherHawk,2013-06-07 23:42:00,
2013-06-07 16:44:00,109.4,27.9,29.58,WSW,249,10.0,14.0,6,0.00,,,0.00,595,WeatherHawk,2013-06-07 23:44:00,
2013-06-07 16:51:00,109.2,37.8,29.58,WSW,242,9.0,14.0,9,0.00,,,0.00,556,WeatherHawk,2013-06-07 23:51:00,
2013-06-07 16:52:00,109.0,40.4,29.58,WSW,240,9.0,14.0,10,0.00,,,0.00,560,WeatherHawk,2013-06-07 23:52:00,
2013-06-07 16:54:00,109.0,37.7,29.58,SW,235,9.0,14.0,9,0.00,,,0.00,554,WeatherHawk,2013-06-07 23:54:00,
2013-06-07 16:57:00,109.2,34.9,29.58,SW,223,12.0,14.0,8,0.00,,,0.00,544,WeatherHawk,2013-06-07 23:57:00,
2013-06-07 16:58:00,109.0,34.7,29.58,SW,228,9.0,13.0,8,0.00,,,0.00,539,WeatherHawk,2013-06-07 23:58:00,
2013-06-07 17:01:00,108.9,37.6,29.58,SW,234,11.0,13.0,9,0.00,,,0.00,522,WeatherHawk,2013-06-08 00:01:00,
2013-06-07 17:04:00,109.0,37.7,29.58,SW,236,9.0,13.0,9,0.00,,,0.00,517,WeatherHawk,2013-06-08 00:04:00,
2013-06-07 17:07:00,108.9,40.3,29.58,WSW,237,9.0,13.0,10,0.00,,,0.00,502,WeatherHawk,2013-06-08 00:07:00,
2013-06-07 17:12:00,108.3,39.9,29.58,WSW,242,13.0,13.0,10,0.00,,,0.00,484,WeatherHawk,2013-06-08 00:12:00,
2013-06-07 17:14:00,108.1,39.7,29.58,West,260,10.0,13.0,10,0.00,,,0.00,475,WeatherHawk,2013-06-08 00:14:00,
2013-06-07 17:15:00,108.1,42.2,29.58,WSW,254,10.0,13.0,11,0.00,,,0.00,473,WeatherHawk,2013-06-08 00:15:00,
2013-06-07 17:16:00,108.0,42.1,29.58,WSW,258,10.0,13.0,11,0.00,,,0.00,469,WeatherHawk,2013-06-08 00:16:00,
2013-06-07 17:18:00,108.0,42.1,29.58,WSW,247,14.0,0.0,11,0.00,,,0.00,460,WeatherHawk,2013-06-08 00:18:00,
2013-06-07 17:19:00,108.1,39.7,29.58,SW,220,11.0,14.0,10,0.00,,,0.00,454,WeatherHawk,2013-06-08 00:19:00,
2013-06-07 17:20:00,108.1,39.7,29.58,SW,228,10.0,14.0,10,0.00,,,0.00,451,WeatherHawk,2013-06-08 00:20:00,
2013-06-07 17:23:00,108.5,40.0,29.58,WSW,249,12.0,14.0,10,0.00,,,0.00,442,WeatherHawk,2013-06-08 00:23:00,
2013-06-07 17:25:00,108.3,42.3,29.58,WSW,241,12.0,14.0,11,0.00,,,0.00,434,WeatherHawk,2013-06-08 00:25:00,
2013-06-07 17:26:00,108.1,39.7,29.58,WSW,254,9.0,14.0,10,0.00,,,0.00,429,WeatherHawk,2013-06-08 00:26:00,
2013-06-07 17:28:00,108.0,42.1,29.58,WSW,253,10.0,15.0,11,0.00,,,0.00,425,WeatherHawk,2013-06-08 00:28:00,
2013-06-07 17:32:00,108.0,39.6,29.58,WSW,239,10.0,-999.0,10,0.00,,,0.00,408,WeatherHawk,2013-06-08 00:32:00,
2013-06-07 17:34:00,108.0,39.6,29.58,WSW,238,11.0,15.0,10,0.00,,,0.00,396,WeatherHawk,2013-06-08 00:34:00,
2013-06-07 17:35:00,108.0,39.6,29.58,SW,228,11.0,15.0,10,0.00,,,0.00,395,WeatherHawk,2013-06-08 00:35:00,
2013-06-07 17:37:00,107.8,41.9,29.58,WSW,239,11.0,15.0,11,0.00,,,0.00,389,WeatherHawk,2013-06-08 00:37:00,
2013-06-07 17:42:00,107.8,41.9,29.58,WSW,254,11.0,14.0,11,0.00,,,0.00,371,WeatherHawk,2013-06-08 00:42:00,
2013-06-07 17:46:00,107.6,39.3,29.58,WSW,242,8.0,14.0,10,0.00,,,0.00,356,WeatherHawk,2013-06-08 00:46:00,
2013-06-07 17:47:00,107.6,39.3,29.58,SW,232,10.0,14.0,10,0.00,,,0.00,353,WeatherHawk,2013-06-08 00:47:00,
2013-06-07 17:49:00,107.6,39.3,29.58,SW,227,11.0,13.0,10,0.00,,,0.00,346,WeatherHawk,2013-06-08 00:49:00,
2013-06-07 17:51:00,107.4,41.6,29.58,WSW,242,12.0,13.0,11,0.00,,,0.00,337,WeatherHawk,2013-06-08 00:51:00,
2013-06-07 17:52:00,107.4,39.2,29.58,WSW,244,11.0,-999.0,10,0.00,,,0.00,333,WeatherHawk,2013-06-08 00:52:00,
2013-06-07 17:55:00,107.6,39.3,29.58,WSW,247,9.0,13.0,10,0.00,,,0.00,322,WeatherHawk,2013-06-08 00:55:00,
2013-06-07 17:56:00,107.6,39.3,29.58,SW,235,11.0,13.0,10,0.00,,,0.00,317,WeatherHawk,2013-06-08 00:56:00,
2013-06-07 17:57:00,107.6,39.3,29.58,WSW,243,11.0,13.0,10,0.00,,,0.00,317,WeatherHawk,2013-06-08 00:57:00,
2013-06-07 17:58:00,107.4,39.2,29.58,WSW,253,9.0,0.0,10,0.00,,,0.00,312,WeatherHawk,2013-06-08 00:58:00,
2013-06-07 18:03:00,107.4,39.2,29.58,WSW,247,10.0,13.0,10,0.00,,,0.00,294,WeatherHawk,2013-06-08 01:03:00,
2013-06-07 18:05:00,107.2,39.1,29.58,SW,233,11.0,13.0,10,0.00,,,0.00,286,WeatherHawk,2013-06-08 01:05:00,
2013-06-07 18:07:00,107.2,39.1,29.58,WSW,256,11.0,13.0,10,0.00,,,0.00,279,WeatherHawk,2013-06-08 01:07:00,
2013-06-07 18:09:00,107.1,38.9,29.58,WSW,256,9.0,13.0,10,0.00,,,0.00,269,WeatherHawk,2013-06-08 01:09:00,
2013-06-07 18:12:00,107.1,38.9,29.58,SW,232,8.0,13.0,10,0.00,,,0.00,262,WeatherHawk,2013-06-08 01:12:00,
2013-06-07 18:16:00,107.1,38.9,29.58,SW,231,8.0,13.0,10,0.00,,,0.00,246,WeatherHawk,2013-06-08 01:16:00,
2013-06-07 18:17:00,107.1,38.9,29.58,SW,231,8.0,13.0,10,0.00,,,0.00,246,WeatherHawk,2013-06-08 01:17:00,
2013-06-07 18:19:00,107.2,36.4,29.58,SW,231,9.0,13.0,9,0.00,,,0.00,235,WeatherHawk,2013-06-08 01:19:00,
2013-06-07 18:22:00,107.2,39.1,29.58,SW,236,9.0,13.0,10,0.00,,,0.00,225,WeatherHawk,2013-06-08 01:22:00,
2013-06-07 18:27:00,106.7,38.7,29.58,WSW,241,7.0,13.0,10,0.00,,,0.00,208,WeatherHawk,2013-06-08 01:27:00,
2013-06-07 18:29:00,106.7,38.7,29.58,SW,236,7.0,12.0,10,0.00,,,0.00,201,WeatherHawk,2013-06-08 01:29:00,
2013-06-07 18:30:00,106.7,38.7,29.58,WSW,244,8.0,12.0,10,0.00,,,0.00,197,WeatherHawk,2013-06-08 01:30:00,
2013-06-07 18:35:00,106.2,40.7,29.58,SW,226,9.0,12.0,11,0.00,,,0.00,180,WeatherHawk,2013-06-08 01:35:00,
2013-06-07 18:38:00,106.0,40.6,29.58,SW,230,8.0,0.0,11,0.00,,,0.00,176,WeatherHawk,2013-06-08 01:38:00,
2013-06-07 18:40:00,105.8,40.4,29.58,WSW,238,7.0,10.0,11,0.00,,,0.00,163,WeatherHawk,2013-06-08 01:40:00,
2013-06-07 18:42:00,105.8,40.4,29.58,SW,235,9.0,10.0,11,0.00,,,0.00,157,WeatherHawk,2013-06-08 01:42:00,
2013-06-07 18:44:00,105.4,40.1,29.58,WSW,249,8.0,10.0,11,0.00,,,0.00,149,WeatherHawk,2013-06-08 01:44:00,
2013-06-07 18:47:00,105.3,37.6,29.58,SW,218,9.0,0.0,10,0.00,,,0.00,140,WeatherHawk,2013-06-08 01:47:00,
2013-06-07 18:50:00,105.1,39.9,29.58,SW,231,8.0,10.0,11,0.00,,,0.00,131,WeatherHawk,2013-06-08 01:50:00,
2013-06-07 18:52:00,104.9,39.7,29.58,SW,233,9.0,10.0,11,0.00,,,0.00,127,WeatherHawk,2013-06-08 01:52:00,
2013-06-07 18:57:00,104.7,39.6,29.58,SW,230,8.0,10.0,11,0.00,,,0.00,113,WeatherHawk,2013-06-08 01:57:00,
2013-06-07 18:58:00,104.5,39.5,29.58,SW,221,11.0,11.0,11,0.00,,,0.00,106,WeatherHawk,2013-06-08 01:58:00,
2013-06-07 19:03:00,104.0,41.3,29.58,SSW,213,11.0,11.0,12,0.00,,,0.00,91,WeatherHawk,2013-06-08 02:03:00,
2013-06-07 19:04:00,103.6,41.0,29.58,SW,219,9.0,11.0,12,0.00,,,0.00,89,WeatherHawk,2013-06-08 02:04:00,
2013-06-07 19:09:00,102.6,40.2,29.58,SW,215,12.0,13.0,12,0.00,,,0.00,75,WeatherHawk,2013-06-08 02:09:00,
2013-06-07 19:11:00,102.2,42.0,29.58,SW,219,10.0,13.0,13,0.00,,,0.00,69,WeatherHawk,2013-06-08 02:11:00,
2013-06-07 19:15:00,101.8,41.7,29.58,SW,216,10.0,13.0,13,0.00,,,0.00,60,WeatherHawk,2013-06-08 02:15:00,
2013-06-07 19:20:00,100.6,42.7,29.58,SSW,212,8.0,13.0,14,0.00,,,0.00,47,WeatherHawk,2013-06-08 02:20:00,
2013-06-07 19:22:00,100.2,42.4,29.58,SSW,210,8.0,13.0,14,0.00,,,0.00,43,WeatherHawk,2013-06-08 02:22:00,
2013-06-07 19:25:00,100.4,42.5,29.58,SSW,209,6.0,13.0,14,0.00,,,0.00,36,WeatherHawk,2013-06-08 02:25:00,
2013-06-07 19:26:00,100.4,42.5,29.58,SSW,205,7.0,13.0,14,0.00,,,0.00,34,WeatherHawk,2013-06-08 02:26:00,
2013-06-07 19:27:00,100.4,42.5,29.58,SSW,205,7.0,13.0,14,0.00,,,0.00,34,WeatherHawk,2013-06-08 02:27:00,
2013-06-07 19:32:00,100.0,42.2,29.58,SSW,207,6.0,10.0,14,0.00,,,0.00,22,WeatherHawk,2013-06-08 02:32:00,
2013-06-07 19:33:00,100.0,42.2,29.58,SSW,195,4.0,10.0,14,0.00,,,0.00,19,WeatherHawk,2013-06-08 02:33:00,
2013-06-07 19:34:00,100.0,40.3,29.58,South,187,4.0,10.0,13,0.00,,,0.00,17,WeatherHawk,2013-06-08 02:34:00,
2013-06-07 19:37:00,100.4,38.5,29.58,South,191,5.0,0.0,12,0.00,,,0.00,13,WeatherHawk,2013-06-08 02:37:00,
2013-06-07 19:40:00,100.4,36.3,29.58,SSW,208,4.0,8.0,11,0.00,,,0.00,8,WeatherHawk,2013-06-08 02:40:00,
2013-06-07 19:41:00,100.4,36.3,29.58,SSW,207,4.0,8.0,11,0.00,,,0.00,7,WeatherHawk,2013-06-08 02:41:00,
2013-06-07 19:45:00,100.2,36.2,29.58,SSW,195,4.0,8.0,11,0.00,,,0.00,5,WeatherHawk,2013-06-08 02:45:00,
2013-06-07 19:46:00,100.4,36.3,29.58,SSW,194,4.0,8.0,11,0.00,,,0.00,5,WeatherHawk,2013-06-08 02:46:00,
2013-06-07 19:47:00,100.4,36.3,29.58,SSW,194,4.0,8.0,11,0.00,,,0.00,5,WeatherHawk,2013-06-08 02:47:00,
2013-06-07 19:52:00,100.4,33.9,29.59,SSW,205,4.0,-999.0,10,0.00,,,0.00,2,WeatherHawk,2013-06-08 02:52:00,
2013-06-07 19:53:00,100.4,33.9,29.59,SSW,206,4.0,6.0,10,0.00,,,0.00,2,WeatherHawk,2013-06-08 02:53:00,
2013-06-07 19:55:00,100.2,33.8,29.59,SSW,200,3.0,6.0,10,0.00,,,0.00,1,WeatherHawk,2013-06-08 02:55:00,
2013-06-07 19:57:00,100.2,33.8,29.59,SSW,197,4.0,0.0,10,0.00,,,0.00,0,WeatherHawk,2013-06-08 02:57:00,
2013-06-07 19:58:00,100.2,33.8,29.59,SSW,196,5.0,6.0,10,0.00,,,0.00,1,WeatherHawk,2013-06-08 02:58:00,
2013-06-07 20:02:00,100.8,34.2,29.59,South,189,8.0,-999.0,10,0.00,,,0.00,0,WeatherHawk,2013-06-08 03:02:00,
2013-06-07 20:03:00,100.9,31.7,29.59,South,188,8.0,8.0,9,0.00,,,0.00,0,WeatherHawk,2013-06-08 03:03:00,
2013-06-07 20:06:00,100.9,34.3,29.59,South,185,6.0,6.0,10,0.00,,,0.00,0,WeatherHawk,2013-06-08 03:06:00,
2013-06-07 20:07:00,100.9,34.3,29.59,South,184,7.0,-999.0,10,0.00,,,0.00,0,WeatherHawk,2013-06-08 03:07:00,
2013-06-07 20:09:00,100.8,34.2,29.59,South,186,6.0,9.0,10,0.00,,,0.00,0,WeatherHawk,2013-06-08 03:09:00,
2013-06-07 20:12:00,100.6,34.1,29.59,South,183,6.0,9.0,10,0.00,,,0.00,0,WeatherHawk,2013-06-08 03:12:00,
2013-06-07 20:14:00,100.4,33.9,29.59,South,181,6.0,9.0,10,0.00,,,0.00,0,WeatherHawk,2013-06-08 03:14:00,
2013-06-07 20:17:00,100.2,33.8,29.59,South,178,5.0,9.0,10,0.00,,,0.00,0,WeatherHawk,2013-06-08 03:17:00,
2013-06-07 20:20:00,99.7,33.4,29.59,South,180,6.0,8.0,10,0.00,,,0.00,0,WeatherHawk,2013-06-08 03:20:00,
2013-06-07 20:22:00,99.3,33.1,29.59,South,182,6.0,8.0,10,0.00,,,0.00,0,WeatherHawk,2013-06-08 03:22:00,
2013-06-07 20:28:00,98.8,35.1,29.59,South,186,6.0,7.0,11,0.00,,,0.00,0,WeatherHawk,2013-06-08 03:28:00,
2013-06-07 20:30:00,98.6,35.0,29.59,South,182,6.0,7.0,11,0.00,,,0.00,0,WeatherHawk,2013-06-08 03:30:00,
2013-06-07 20:32:00,98.6,35.0,29.59,South,181,5.0,-999.0,11,0.00,,,0.00,0,WeatherHawk,2013-06-08 03:32:00,
2013-06-07 20:35:00,98.4,34.8,29.60,South,187,7.0,7.0,11,0.00,,,0.00,0,WeatherHawk,2013-06-08 03:35:00,
2013-06-07 20:37:00,98.4,34.8,29.60,South,187,6.0,7.0,11,0.00,,,0.00,0,WeatherHawk,2013-06-08 03:37:00,
2013-06-07 20:40:00,98.1,34.6,29.60,South,187,6.0,8.0,11,0.00,,,0.00,0,WeatherHawk,2013-06-08 03:40:00,
2013-06-07 20:42:00,97.9,34.4,29.60,South,184,6.0,8.0,11,0.00,,,0.00,0,WeatherHawk,2013-06-08 03:42:00,
2013-06-07 20:43:00,97.9,34.4,29.60,South,185,7.0,8.0,11,0.00,,,0.00,0,WeatherHawk,2013-06-08 03:43:00,
2013-06-07 20:47:00,97.5,36.3,29.60,South,177,5.0,8.0,12,0.00,,,0.00,0,WeatherHawk,2013-06-08 03:47:00,
2013-06-07 20:48:00,97.2,36.1,29.60,South,184,8.0,8.0,12,0.00,,,0.00,0,WeatherHawk,2013-06-08 03:48:00,
2013-06-07 20:51:00,97.0,35.9,29.60,South,182,9.0,9.0,12,0.00,,,0.00,0,WeatherHawk,2013-06-08 03:51:00,
2013-06-07 20:55:00,96.6,37.7,29.60,South,181,8.0,8.0,13,0.00,,,0.00,0,WeatherHawk,2013-06-08 03:55:00,
2013-06-07 20:57:00,96.6,37.7,29.60,South,182,9.0,9.0,13,0.00,,,0.00,0,WeatherHawk,2013-06-08 03:57:00,
2013-06-07 20:59:00,96.4,39.4,29.60,South,185,9.0,10.0,14,0.00,,,0.00,0,WeatherHawk,2013-06-08 03:59:00,
2013-06-07 21:01:00,96.3,39.3,29.60,South,186,8.0,10.0,14,0.00,,,0.00,0,WeatherHawk,2013-06-08 04:01:00,
2013-06-07 21:02:00,96.3,39.3,29.60,South,186,8.0,10.0,14,0.00,,,0.00,0,WeatherHawk,2013-06-08 04:02:00,
2013-06-07 21:05:00,95.9,39.0,29.61,South,182,8.0,10.0,14,0.00,,,0.00,0,WeatherHawk,2013-06-08 04:05:00,
2013-06-07 21:07:00,95.7,40.6,29.61,South,184,8.0,10.0,15,0.00,,,0.00,0,WeatherHawk,2013-06-08 04:07:00,
2013-06-07 21:08:00,95.5,40.5,29.61,South,176,10.0,10.0,15,0.00,,,0.00,0,WeatherHawk,2013-06-08 04:08:00,
2013-06-07 21:12:00,95.2,40.2,29.61,South,185,9.0,-999.0,15,0.00,,,0.00,0,WeatherHawk,2013-06-08 04:12:00,
2013-06-07 21:13:00,95.0,41.7,29.61,South,181,10.0,10.0,16,0.00,,,0.00,0,WeatherHawk,2013-06-08 04:13:00,
2013-06-07 21:15:00,94.8,41.6,29.61,South,187,8.0,10.0,16,0.00,,,0.00,0,WeatherHawk,2013-06-08 04:15:00,
2013-06-07 21:17:00,94.6,41.4,29.61,South,185,9.0,10.0,16,0.00,,,0.00,1,WeatherHawk,2013-06-08 04:17:00,
2013-06-07 21:19:00,94.5,41.3,29.61,South,180,9.0,10.0,16,0.00,,,0.00,0,WeatherHawk,2013-06-08 04:19:00,
2013-06-07 21:22:00,94.3,42.7,29.61,South,181,8.0,10.0,17,0.00,,,0.00,0,WeatherHawk,2013-06-08 04:22:00,
2013-06-07 21:26:00,93.7,42.3,29.62,South,176,8.0,10.0,17,0.00,,,0.00,0,WeatherHawk,2013-06-08 04:26:00,
2013-06-07 21:27:00,93.6,43.6,29.62,South,184,8.0,10.0,18,0.00,,,0.00,0,WeatherHawk,2013-06-08 04:27:00,
2013-06-07 21:28:00,93.6,42.2,29.62,South,180,10.0,10.0,17,0.00,,,0.00,0,WeatherHawk,2013-06-08 04:28:00,
2013-06-07 21:32:00,93.6,42.2,29.62,South,185,9.0,9.0,17,0.00,,,0.00,0,WeatherHawk,2013-06-08 04:32:00,
2013-06-07 21:33:00,93.6,43.6,29.62,South,182,10.0,10.0,18,0.00,,,0.00,0,WeatherHawk,2013-06-08 04:33:00,
2013-06-07 21:34:00,93.6,43.6,29.62,South,183,10.0,10.0,18,0.00,,,0.00,0,WeatherHawk,2013-06-08 04:34:00,
2013-06-07 21:37:00,93.4,43.5,29.62,South,183,10.0,10.0,18,0.00,,,0.00,0,WeatherHawk,2013-06-08 04:37:00,
2013-06-07 21:40:00,93.0,44.6,29.62,South,182,9.0,11.0,19,0.00,,,0.00,0,WeatherHawk,2013-06-08 04:40:00,
2013-06-07 21:42:00,92.8,44.5,29.62,South,186,8.0,11.0,19,0.00,,,0.00,0,WeatherHawk,2013-06-08 04:42:00,
2013-06-07 21:47:00,92.5,44.2,29.62,South,182,6.0,-999.0,19,0.00,,,0.00,0,WeatherHawk,2013-06-08 04:47:00,
2013-06-07 21:49:00,92.1,43.9,29.62,South,180,8.0,10.0,19,0.00,,,0.00,0,WeatherHawk,2013-06-08 04:49:00,
2013-06-07 21:51:00,91.9,45.1,29.62,South,183,9.0,10.0,20,0.00,,,0.00,0,WeatherHawk,2013-06-08 04:51:00,
2013-06-07 21:52:00,91.9,45.1,29.62,South,183,9.0,-999.0,20,0.00,,,0.00,0,WeatherHawk,2013-06-08 04:52:00,
2013-06-07 21:57:00,91.8,44.9,29.62,South,182,8.0,10.0,20,0.00,,,0.00,0,WeatherHawk,2013-06-08 04:57:00,
2013-06-07 21:59:00,91.6,44.8,29.62,South,178,8.0,10.0,20,0.00,,,0.00,0,WeatherHawk,2013-06-08 04:59:00,
2013-06-07 22:02:00,91.4,44.6,29.62,South,174,9.0,10.0,20,0.00,,,0.00,0,WeatherHawk,2013-06-08 05:02:00,
2013-06-07 22:03:00,91.2,44.5,29.62,South,175,11.0,11.0,20,0.00,,,0.00,0,WeatherHawk,2013-06-08 05:03:00,
2013-06-07 22:07:00,91.0,44.4,29.62,South,177,10.0,0.0,20,0.00,,,0.00,0,WeatherHawk,2013-06-08 05:07:00,
2013-06-07 22:08:00,91.0,44.4,29.63,South,174,11.0,12.0,20,0.00,,,0.00,0,WeatherHawk,2013-06-08 05:08:00,
2013-06-07 22:09:00,90.9,44.2,29.63,South,175,10.0,12.0,20,0.00,,,0.00,0,WeatherHawk,2013-06-08 05:09:00,
2013-06-07 22:12:00,90.9,42.9,29.63,South,177,11.0,-999.0,19,0.00,,,0.00,0,WeatherHawk,2013-06-08 05:12:00,
2013-06-07 22:14:00,90.9,41.5,29.63,South,179,11.0,12.0,18,0.00,,,0.00,0,WeatherHawk,2013-06-08 05:14:00,
2013-06-07 22:17:00,90.9,42.9,29.63,South,177,12.0,-999.0,19,0.00,,,0.00,0,WeatherHawk,2013-06-08 05:17:00,
2013-06-07 22:19:00,90.5,41.2,29.63,South,175,13.0,13.0,18,0.00,,,0.00,0,WeatherHawk,2013-06-08 05:19:00,
2013-06-07 22:22:00,90.5,39.7,29.63,South,177,13.0,-999.0,17,0.00,,,0.00,0,WeatherHawk,2013-06-08 05:22:00,
2013-06-07 22:23:00,90.5,39.7,29.63,South,180,12.0,13.0,17,0.00,,,0.00,0,WeatherHawk,2013-06-08 05:23:00,
2013-06-07 22:27:00,90.3,39.6,29.63,South,179,11.0,13.0,17,0.00,,,0.00,0,WeatherHawk,2013-06-08 05:27:00,
2013-06-07 22:29:00,90.1,39.4,29.63,South,178,10.0,14.0,17,0.00,,,0.00,0,WeatherHawk,2013-06-08 05:29:00,
2013-06-07 22:32:00,90.1,37.9,29.63,South,174,11.0,14.0,16,0.00,,,0.00,0,WeatherHawk,2013-06-08 05:32:00,
2013-06-07 22:34:00,90.0,37.7,29.63,South,176,11.0,14.0,16,0.00,,,0.00,0,WeatherHawk,2013-06-08 05:34:00,
2013-06-07 22:35:00,90.0,37.7,29.63,South,177,15.0,15.0,16,0.00,,,0.00,0,WeatherHawk,2013-06-08 05:35:00,
2013-06-07 22:37:00,90.0,37.7,29.63,South,176,12.0,14.0,16,0.00,,,0.00,0,WeatherHawk,2013-06-08 05:37:00,
2013-06-07 22:40:00,89.8,35.9,29.63,South,169,15.0,15.0,15,0.00,,,0.00,0,WeatherHawk,2013-06-08 05:40:00,
2013-06-07 22:42:00,89.8,35.9,29.63,South,177,15.0,15.0,15,0.00,,,0.00,0,WeatherHawk,2013-06-08 05:42:00,
2013-06-07 22:45:00,89.8,35.9,29.63,South,175,15.0,15.0,15,0.00,,,0.00,0,WeatherHawk,2013-06-08 05:45:00,
2013-06-07 22:46:00,89.6,35.8,29.63,South,171,14.0,15.0,15,0.00,,,0.00,1,WeatherHawk,2013-06-08 05:46:00,
2013-06-07 22:48:00,89.6,34.1,29.62,South,171,13.0,16.0,14,0.00,,,0.00,0,WeatherHawk,2013-06-08 05:48:00,
2013-06-07 22:52:00,89.4,33.9,29.63,South,175,12.0,-999.0,14,0.00,,,0.00,0,WeatherHawk,2013-06-08 05:52:00,
2013-06-07 22:53:00,89.4,33.9,29.63,South,171,11.0,16.0,14,0.00,,,0.00,0,WeatherHawk,2013-06-08 05:53:00,
2013-06-07 22:54:00,89.4,33.9,29.63,South,176,13.0,16.0,14,0.00,,,0.00,0,WeatherHawk,2013-06-08 05:54:00,
2013-06-07 22:55:00,89.4,33.9,29.62,South,171,13.0,16.0,14,0.00,,,0.00,0,WeatherHawk,2013-06-08 05:55:00,
2013-06-07 22:58:00,89.4,33.9,29.62,South,172,12.0,16.0,14,0.00,,,0.00,0,WeatherHawk,2013-06-08 05:58:00,
2013-06-07 23:00:00,89.4,33.9,29.62,South,175,13.0,16.0,14,0.00,,,0.00,0,WeatherHawk,2013-06-08 06:00:00,
2013-06-07 23:02:00,89.4,33.9,29.62,South,173,12.0,-999.0,14,0.00,,,0.00,0,WeatherHawk,2013-06-08 06:02:00,
2013-06-07 23:05:00,89.2,31.9,29.63,SSE,165,12.0,16.0,13,0.00,,,0.00,0,WeatherHawk,2013-06-08 06:05:00,
2013-06-07 23:07:00,89.2,31.9,29.63,SSE,165,12.0,16.0,13,0.00,,,0.00,0,WeatherHawk,2013-06-08 06:07:00,
2013-06-07 23:10:00,89.1,31.8,29.62,SSE,166,13.0,14.0,13,0.00,,,0.00,0,WeatherHawk,2013-06-08 06:10:00,
2013-06-07 23:12:00,89.1,31.8,29.62,SSE,157,10.0,14.0,13,0.00,,,0.00,0,WeatherHawk,2013-06-08 06:12:00,
2013-06-07 23:14:00,89.2,31.9,29.63,SSE,162,11.0,14.0,13,0.00,,,0.00,0,WeatherHawk,2013-06-08 06:14:00,
2013-06-07 23:16:00,89.2,31.9,29.63,SSE,168,12.0,14.0,13,0.00,,,0.00,0,WeatherHawk,2013-06-08 06:16:00,
2013-06-07 23:19:00,89.4,32.1,29.62,SSE,168,15.0,16.0,13,0.00,,,0.00,0,WeatherHawk,2013-06-08 06:19:00,
2013-06-07 23:21:00,89.2,31.9,29.62,SSE,168,13.0,16.0,13,0.00,,,0.00,0,WeatherHawk,2013-06-08 06:21:00,
2013-06-07 23:22:00,89.2,31.9,29.62,SSE,168,13.0,16.0,13,0.00,,,0.00,0,WeatherHawk,2013-06-08 06:22:00,
2013-06-07 23:25:00,89.2,31.9,29.63,SSE,163,12.0,16.0,13,0.00,,,0.00,0,WeatherHawk,2013-06-08 06:25:00,
2013-06-07 23:27:00,89.1,31.8,29.63,SSE,167,12.0,16.0,13,0.00,,,0.00,0,WeatherHawk,2013-06-08 06:27:00,
2013-06-07 23:28:00,89.1,31.8,29.63,SSE,160,11.0,17.0,13,0.00,,,0.00,0,WeatherHawk,2013-06-08 06:28:00,
2013-06-07 23:30:00,89.1,31.8,29.63,SSE,160,11.0,17.0,13,0.00,,,0.00,1,WeatherHawk,2013-06-08 06:30:00,
2013-06-07 23:32:00,88.9,31.7,29.63,SSE,158,10.0,17.0,13,0.00,,,0.00,0,WeatherHawk,2013-06-08 06:32:00,
2013-06-07 23:37:00,88.3,31.2,29.63,SSE,153,9.0,17.0,13,0.00,,,0.00,0,WeatherHawk,2013-06-08 06:37:00,
2013-06-07 23:42:00,88.0,31.0,29.63,SSE,151,8.0,12.0,13,0.00,,,0.00,0,WeatherHawk,2013-06-08 06:42:00,
2013-06-07 23:45:00,87.4,32.4,29.63,SSE,152,5.0,12.0,14,0.00,,,0.00,0,WeatherHawk,2013-06-08 06:45:00,
2013-06-07 23:47:00,87.4,32.4,29.63,SE,142,4.0,-999.0,14,0.00,,,0.00,0,WeatherHawk,2013-06-08 06:47:00,
2013-06-07 23:49:00,86.9,31.9,29.63,ESE,106,4.0,9.0,14,0.00,,,0.00,0,WeatherHawk,2013-06-08 06:49:00,
2013-06-07 23:51:00,86.7,31.8,29.63,East,100,4.0,9.0,14,0.00,,,0.00,0,WeatherHawk,2013-06-08 06:51:00,
2013-06-07 23:53:00,86.5,33.4,29.63,ENE,64,4.0,9.0,15,0.00,,,0.00,0,WeatherHawk,2013-06-08 06:53:00,
2013-06-07 23:54:00,86.2,33.1,29.63,ENE,72,5.0,9.0,15,0.00,,,0.00,1,WeatherHawk,2013-06-08 06:54:00,
2013-06-07 23:55:00,85.6,34.3,29.63,ENE,70,5.0,9.0,16,0.00,,,0.00,0,WeatherHawk,2013-06-08 06:55:00,
2013-06-07 23:57:00,85.5,34.1,29.63,ENE,67,4.0,9.0,16,0.00,,,0.00,0,WeatherHawk,2013-06-08 06:57:00,